| time (UTC) | temp F | wind direction | speed MPH | gust MPH | rain 1hr in | rain 24hr in | rain mn in | humidity % | barometer mb |
| 20260506102520 | 75 | 360 | 1.0 | 4.0 | 0.00 | 0.00 | 0.00 | 88 | 1009.7 |
| 20260506102422 | 75 | 360 | 1.0 | 8.0 | 0.00 | 0.00 | 0.00 | 88 | 1009.7 |
| 20260506102323 | 75 | 360 | 1.0 | 9.0 | 0.00 | 0.00 | 0.00 | 88 | 1009.7 |
| 20260506102223 | 75 | 360 | 1.0 | 9.0 | 0.00 | 0.00 | 0.00 | 88 | 1009.7 |
| 20260506102124 | 75 | 360 | 2.0 | 10.0 | 0.00 | 0.00 | 0.00 | 88 | 1009.6 |
| 20260506102024 | 75 | 360 | 2.0 | 10.0 | 0.00 | 0.00 | 0.00 | 88 | 1009.6 |
| 20260506101929 | 75 | 360 | 2.0 | 10.0 | 0.00 | 0.00 | 0.00 | 88 | 1009.6 |
| 20260506101829 | 75 | 360 | 3.0 | 10.0 | 0.00 | 0.00 | 0.00 | 88 | 1009.6 |
| 20260506101729 | 75 | 360 | 5.0 | 10.0 | 0.00 | 0.00 | 0.00 | 88 | 1009.6 |
| 20260506101629 | 75 | 360 | 5.0 | 10.0 | 0.00 | 0.00 | 0.00 | 88 | 1009.5 |
| 20260506101529 | 75 | 360 | 4.0 | 10.0 | 0.00 | 0.00 | 0.00 | 88 | 1009.6 |
| 20260506101430 | 75 | 360 | 4.0 | 10.0 | 0.00 | 0.00 | 0.00 | 88 | 1009.5 |
| 20260506101332 | 75 | 360 | 4.0 | 10.0 | 0.00 | 0.00 | 0.00 | 88 | 1009.5 |
| 20260506101216 | 75 | 360 | 2.0 | 12.0 | 0.00 | 0.00 | 0.00 | 88 | 1009.5 |
| 20260506101116 | 75 | 360 | 2.0 | 12.0 | 0.00 | 0.00 | 0.00 | 88 | 1009.4 |
| 20260506101017 | 75 | 360 | 2.0 | 12.0 | 0.00 | 0.00 | 0.00 | 88 | 1009.4 |
| 20260506100918 | 75 | 360 | 3.0 | 12.0 | 0.00 | 0.00 | 0.00 | 88 | 1009.5 |
| 20260506100838 | 75 | 360 | 4.0 | 12.0 | 0.00 | 0.00 | 0.00 | 88 | 1009.4 |
| 20260506100718 | 75 | 360 | 4.0 | 12.0 | 0.00 | 0.00 | 0.00 | 88 | 1009.4 |
| 20260506100617 | 75 | 360 | 4.0 | 12.0 | 0.00 | 0.00 | 0.00 | 88 | 1009.4 |
| 20260506100523 | 75 | 360 | 4.0 | 12.0 | 0.00 | 0.00 | 0.00 | 88 | 1009.4 |
| 20260506100444 | 75 | 360 | 4.0 | 12.0 | 0.00 | 0.00 | 0.00 | 88 | 1009.4 |
| 20260506100324 | 75 | 360 | 4.0 | 13.0 | 0.00 | 0.00 | 0.00 | 88 | 1009.4 |
| 20260506100245 | 75 | 360 | 4.0 | 13.0 | 0.00 | 0.00 | 0.00 | 88 | 1009.4 |
| 20260506100123 | 75 | 360 | 4.0 | 13.0 | 0.00 | 0.00 | 0.00 | 88 | 1009.3 |
| 20260506100024 | 75 | 360 | 4.0 | 13.0 | 0.00 | 0.00 | 0.00 | 88 | 1009.3 |
| 20260506095925 | 75 | 360 | 4.0 | 13.0 | 0.00 | 0.00 | 0.00 | 88 | 1009.3 |
| 20260506095829 | 75 | 360 | 5.0 | 13.0 | 0.00 | 0.00 | 0.00 | 88 | 1009.4 |
| 20260506095731 | 75 | 360 | 5.0 | 13.0 | 0.00 | 0.00 | 0.00 | 88 | 1009.3 |
| 20260506095630 | 75 | 360 | 5.0 | 13.0 | 0.00 | 0.00 | 0.00 | 88 | 1009.2 |
| 20260506095530 | 75 | 360 | 5.0 | 13.0 | 0.00 | 0.00 | 0.00 | 88 | 1009.4 |
| 20260506095431 | 75 | 360 | 6.0 | 13.0 | 0.00 | 0.00 | 0.00 | 88 | 1009.3 |
| 20260506095332 | 75 | 360 | 7.0 | 13.0 | 0.00 | 0.00 | 0.00 | 88 | 1009.2 |
| 20260506095232 | 75 | 360 | 6.0 | 13.0 | 0.00 | 0.00 | 0.00 | 88 | 1009.2 |
| 20260506095116 | 75 | 360 | 6.0 | 17.0 | 0.00 | 0.00 | 0.00 | 88 | 1009.2 |
| 20260506095017 | 75 | 360 | 5.0 | 17.0 | 0.00 | 0.00 | 0.00 | 88 | 1009.2 |
| 20260506094919 | 75 | 360 | 5.0 | 17.0 | 0.00 | 0.00 | 0.00 | 88 | 1009.2 |
| 20260506094819 | 75 | 360 | 5.0 | 17.0 | 0.00 | 0.00 | 0.00 | 88 | 1009.2 |
| 20260506094719 | 75 | 360 | 4.0 | 17.0 | 0.00 | 0.00 | 0.00 | 88 | 1009.2 |
| 20260506094619 | 75 | 360 | 4.0 | 17.0 | 0.00 | 0.00 | 0.00 | 88 | 1009.2 |
| 20260506094520 | 75 | 360 | 4.0 | 17.0 | 0.00 | 0.00 | 0.00 | 88 | 1009.2 |
| 20260506094423 | 75 | 360 | 4.0 | 17.0 | 0.00 | 0.00 | 0.00 | 88 | 1009.2 |
| 20260506094324 | 75 | 360 | 4.0 | 17.0 | 0.00 | 0.00 | 0.00 | 88 | 1009.1 |
| 20260506094224 | 75 | 360 | 5.0 | 17.0 | 0.00 | 0.00 | 0.00 | 88 | 1009.2 |
| 20260506094126 | 75 | 360 | 6.0 | 17.0 | 0.00 | 0.00 | 0.00 | 88 | 1009.2 |
| 20260506094026 | 75 | 360 | 6.0 | 17.0 | 0.00 | 0.00 | 0.00 | 88 | 1009.1 |
| 20260506093927 | 75 | 360 | 6.0 | 13.0 | 0.00 | 0.00 | 0.00 | 88 | 1009.1 |
| 20260506093827 | 75 | 360 | 6.0 | 13.0 | 0.00 | 0.00 | 0.00 | 88 | 1009.1 |
| 20260506093731 | 75 | 360 | 5.0 | 11.0 | 0.00 | 0.00 | 0.00 | 88 | 1009.1 |
| 20260506093633 | 75 | 360 | 4.0 | 11.0 | 0.00 | 0.00 | 0.00 | 88 | 1009.1 |
| 20260506093533 | 75 | 360 | 4.0 | 11.0 | 0.00 | 0.00 | 0.00 | 88 | 1009.1 |
| 20260506093433 | 75 | 360 | 4.0 | 11.0 | 0.00 | 0.00 | 0.00 | 88 | 1009.1 |
| 20260506093333 | 75 | 360 | 4.0 | 11.0 | 0.00 | 0.00 | 0.00 | 88 | 1009.1 |
| 20260506093253 | 75 | 360 | 4.0 | 11.0 | 0.00 | 0.00 | 0.00 | 88 | 1009.2 |
| 20260506093133 | 75 | 360 | 4.0 | 11.0 | 0.00 | 0.00 | 0.00 | 88 | 1009.2 |
| 20260506093017 | 75 | 360 | 4.0 | 11.0 | 0.00 | 0.00 | 0.00 | 88 | 1009.1 |
| 20260506092938 | 75 | 360 | 4.0 | 11.0 | 0.00 | 0.00 | 0.00 | 88 | 1009.1 |
| 20260506092819 | 75 | 360 | 5.0 | 11.0 | 0.00 | 0.00 | 0.00 | 88 | 1009.1 |
| 20260506092738 | 75 | 360 | 4.0 | 11.0 | 0.00 | 0.00 | 0.00 | 88 | 1009.0 |
| 20260506092618 | 75 | 360 | 4.0 | 12.0 | 0.00 | 0.00 | 0.00 | 88 | 1009.0 |
| 20260506092519 | 75 | 360 | 4.0 | 12.0 | 0.00 | 0.00 | 0.00 | 88 | 1008.9 |
| 20260506092419 | 75 | 360 | 5.0 | 12.0 | 0.00 | 0.00 | 0.00 | 88 | 1008.9 |
| 20260506092324 | 75 | 360 | 4.0 | 12.0 | 0.00 | 0.00 | 0.00 | 88 | 1008.8 |
| 20260506092224 | 75 | 360 | 6.0 | 12.0 | 0.00 | 0.00 | 0.00 | 88 | 1008.9 |
| 20260506092124 | 75 | 360 | 6.0 | 12.0 | 0.00 | 0.00 | 0.00 | 88 | 1008.8 |
| 20260506092025 | 75 | 360 | 6.0 | 15.0 | 0.00 | 0.00 | 0.00 | 88 | 1008.8 |
| 20260506091926 | 75 | 360 | 6.0 | 15.0 | 0.00 | 0.00 | 0.00 | 88 | 1008.8 |
| 20260506091826 | 75 | 360 | 5.0 | 15.0 | 0.00 | 0.00 | 0.00 | 88 | 1008.8 |
| 20260506091726 | 75 | 360 | 5.0 | 15.0 | 0.00 | 0.00 | 0.00 | 88 | 1008.8 |
| 20260506091630 | 75 | 360 | 4.0 | 15.0 | 0.00 | 0.00 | 0.00 | 88 | 1008.9 |
| 20260506091550 | 75 | 360 | 4.0 | 15.0 | 0.00 | 0.00 | 0.00 | 88 | 1008.9 |
| 20260506091430 | 75 | 360 | 5.0 | 15.0 | 0.00 | 0.00 | 0.00 | 88 | 1008.9 |
| 20260506091331 | 75 | 360 | 4.0 | 15.0 | 0.00 | 0.00 | 0.00 | 88 | 1008.9 |
| 20260506091231 | 75 | 360 | 5.0 | 15.0 | 0.00 | 0.00 | 0.00 | 88 | 1008.8 |
| 20260506091152 | 75 | 360 | 5.0 | 15.0 | 0.00 | 0.00 | 0.00 | 88 | 1008.9 |
| 20260506091031 | 75 | 360 | 5.0 | 14.0 | 0.00 | 0.00 | 0.00 | 88 | 1008.8 |
| 20260506090916 | 75 | 360 | 5.0 | 14.0 | 0.00 | 0.00 | 0.00 | 88 | 1008.7 |
| 20260506090817 | 75 | 360 | 5.0 | 13.0 | 0.00 | 0.00 | 0.00 | 88 | 1008.8 |
| 20260506090717 | 75 | 360 | 5.0 | 20.0 | 0.00 | 0.00 | 0.00 | 88 | 1008.8 |
| 20260506090617 | 75 | 360 | 4.0 | 20.0 | 0.00 | 0.00 | 0.00 | 88 | 1008.8 |
| 20260506090518 | 75 | 360 | 4.0 | 20.0 | 0.00 | 0.00 | 0.00 | 88 | 1008.7 |
| 20260506090439 | 75 | 360 | 5.0 | 20.0 | 0.00 | 0.00 | 0.00 | 88 | 1008.7 |
| 20260506090339 | 75 | 360 | 5.0 | 20.0 | 0.00 | 0.00 | 0.00 | 88 | 1008.7 |
| 20260506090223 | 75 | 360 | 6.0 | 23.0 | 0.00 | 0.00 | 0.00 | 88 | 1008.6 |
| 20260506090123 | 75 | 360 | 6.0 | 23.0 | 0.00 | 0.00 | 0.00 | 88 | 1008.7 |
| 20260506090024 | 75 | 360 | 7.0 | 23.0 | 0.00 | 0.00 | 0.00 | 87 | 1008.7 |
| 20260506085926 | 75 | 360 | 7.0 | 23.0 | 0.00 | 0.00 | 0.00 | 87 | 1008.7 |
| 20260506085826 | 75 | 360 | 7.0 | 23.0 | 0.00 | 0.00 | 0.00 | 87 | 1008.7 |
| 20260506085728 | 75 | 360 | 6.0 | 23.0 | 0.00 | 0.00 | 0.00 | 87 | 1008.6 |
| 20260506085627 | 75 | 360 | 8.0 | 23.0 | 0.00 | 0.00 | 0.00 | 87 | 1008.7 |
| 20260506085530 | 75 | 360 | 7.0 | 23.0 | 0.00 | 0.00 | 0.00 | 87 | 1008.6 |
| 20260506085431 | 75 | 360 | 7.0 | 20.0 | 0.00 | 0.00 | 0.00 | 87 | 1008.6 |
| 20260506085331 | 75 | 360 | 7.0 | 18.0 | 0.00 | 0.00 | 0.00 | 87 | 1008.7 |
| 20260506085231 | 75 | 360 | 7.0 | 18.0 | 0.00 | 0.00 | 0.00 | 87 | 1008.7 |
| 20260506085132 | 75 | 360 | 6.0 | 18.0 | 0.00 | 0.00 | 0.00 | 87 | 1008.7 |
| 20260506085033 | 75 | 360 | 7.0 | 18.0 | 0.00 | 0.00 | 0.00 | 87 | 1008.7 |
| 20260506084917 | 75 | 360 | 6.0 | 18.0 | 0.00 | 0.00 | 0.00 | 87 | 1008.8 |
| 20260506084818 | 75 | 360 | 7.0 | 18.0 | 0.00 | 0.00 | 0.00 | 87 | 1008.8 |
| 20260506084718 | 75 | 360 | 7.0 | 18.0 | 0.00 | 0.00 | 0.00 | 87 | 1008.8 |
| 20260506084618 | 75 | 360 | 7.0 | 18.0 | 0.00 | 0.00 | 0.00 | 87 | 1008.8 |
| 20260506084538 | 75 | 360 | 7.0 | 18.0 | 0.00 | 0.00 | 0.00 | 87 | 1008.7 |
| 20260506084417 | 75 | 360 | 7.0 | 18.0 | 0.00 | 0.00 | 0.00 | 87 | 1008.8 |
| 20260506084318 | 75 | 360 | 8.0 | 19.0 | 0.00 | 0.00 | 0.00 | 87 | 1008.7 |
| 20260506084224 | 75 | 360 | 7.0 | 19.0 | 0.00 | 0.00 | 0.00 | 87 | 1008.7 |
| 20260506084143 | 75 | 360 | 5.0 | 19.0 | 0.00 | 0.00 | 0.00 | 87 | 1008.8 |
| 20260506084043 | 75 | 360 | 6.0 | 19.0 | 0.00 | 0.00 | 0.00 | 87 | 1008.7 |
| 20260506083924 | 75 | 360 | 6.0 | 19.0 | 0.00 | 0.00 | 0.00 | 87 | 1008.7 |
| 20260506083824 | 75 | 360 | 5.0 | 19.0 | 0.00 | 0.00 | 0.00 | 87 | 1008.7 |
| 20260506083744 | 75 | 360 | 5.0 | 19.0 | 0.00 | 0.00 | 0.00 | 87 | 1008.7 |
| 20260506083624 | 75 | 360 | 5.0 | 19.0 | 0.00 | 0.00 | 0.00 | 87 | 1008.6 |
| 20260506083525 | 75 | 360 | 7.0 | 19.0 | 0.00 | 0.00 | 0.00 | 87 | 1008.6 |
| 20260506083429 | 75 | 360 | 7.0 | 19.0 | 0.00 | 0.00 | 0.00 | 87 | 1008.7 |
| 20260506083330 | 75 | 360 | 7.0 | 19.0 | 0.00 | 0.00 | 0.00 | 87 | 1008.7 |
| 20260506083229 | 75 | 360 | 7.0 | 19.0 | 0.00 | 0.00 | 0.00 | 87 | 1008.7 |
| 20260506083130 | 75 | 360 | 8.0 | 19.0 | 0.00 | 0.00 | 0.00 | 87 | 1008.7 |
| 20260506083031 | 75 | 360 | 7.0 | 14.0 | 0.00 | 0.00 | 0.00 | 87 | 1008.7 |
| 20260506082932 | 75 | 360 | 6.0 | 14.0 | 0.00 | 0.00 | 0.00 | 87 | 1008.6 |
| 20260506082817 | 75 | 360 | 7.0 | 16.0 | 0.00 | 0.00 | 0.00 | 87 | 1008.5 |
| 20260506082717 | 75 | 360 | 7.0 | 16.0 | 0.00 | 0.00 | 0.00 | 87 | 1008.5 |
| 20260506082618 | 75 | 360 | 7.0 | 16.0 | 0.00 | 0.00 | 0.00 | 87 | 1008.6 |
| 20260506082517 | 75 | 360 | 7.0 | 16.0 | 0.00 | 0.00 | 0.00 | 87 | 1008.6 |
| 20260506082417 | 75 | 360 | 6.0 | 18.0 | 0.00 | 0.00 | 0.00 | 87 | 1008.7 |
| 20260506082318 | 75 | 360 | 6.0 | 18.0 | 0.00 | 0.00 | 0.00 | 87 | 1008.6 |
| 20260506082218 | 75 | 360 | 7.0 | 18.0 | 0.00 | 0.00 | 0.00 | 87 | 1008.6 |
| 20260506082123 | 75 | 360 | 8.0 | 18.0 | 0.00 | 0.00 | 0.00 | 87 | 1008.7 |
| 20260506082023 | 75 | 360 | 9.0 | 18.0 | 0.00 | 0.00 | 0.00 | 87 | 1008.7 |
| 20260506081923 | 75 | 360 | 9.0 | 18.0 | 0.00 | 0.00 | 0.00 | 87 | 1008.7 |
| 20260506081823 | 75 | 360 | 8.0 | 18.0 | 0.00 | 0.00 | 0.00 | 87 | 1008.7 |
| 20260506081724 | 75 | 360 | 8.0 | 18.0 | 0.00 | 0.00 | 0.00 | 87 | 1008.7 |
| 20260506081623 | 75 | 360 | 9.0 | 18.0 | 0.00 | 0.00 | 0.00 | 87 | 1008.7 |
| 20260506081524 | 75 | 360 | 8.0 | 18.0 | 0.00 | 0.00 | 0.00 | 87 | 1008.7 |
| 20260506081428 | 75 | 360 | 6.0 | 17.0 | 0.00 | 0.00 | 0.00 | 87 | 1008.7 |
| 20260506081327 | 75 | 360 | 6.0 | 16.0 | 0.00 | 0.00 | 0.00 | 87 | 1008.8 |
| 20260506081228 | 75 | 360 | 6.0 | 16.0 | 0.00 | 0.00 | 0.00 | 87 | 1008.8 |
| 20260506081148 | 75 | 360 | 6.0 | 16.0 | 0.00 | 0.00 | 0.00 | 87 | 1008.8 |
| 20260506081048 | 75 | 360 | 6.0 | 19.0 | 0.00 | 0.00 | 0.00 | 87 | 1008.9 |
| 20260506080928 | 75 | 360 | 6.0 | 19.0 | 0.00 | 0.00 | 0.00 | 87 | 1008.8 |
| 20260506080828 | 75 | 360 | 6.0 | 19.0 | 0.00 | 0.00 | 0.00 | 87 | 1008.8 |
| 20260506080728 | 75 | 360 | 6.0 | 19.0 | 0.00 | 0.00 | 0.00 | 87 | 1008.8 |
| 20260506080633 | 75 | 360 | 6.0 | 19.0 | 0.00 | 0.00 | 0.00 | 87 | 1008.9 |
| 20260506080550 | 75 | 360 | 6.0 | 19.0 | 0.00 | 0.00 | 0.00 | 87 | 1008.9 |
| 20260506080430 | 75 | 360 | 7.0 | 19.0 | 0.00 | 0.00 | 0.00 | 87 | 1008.9 |
| 20260506080332 | 75 | 360 | 7.0 | 19.0 | 0.00 | 0.00 | 0.00 | 87 | 1008.9 |
| 20260506080233 | 75 | 360 | 8.0 | 19.0 | 0.00 | 0.00 | 0.00 | 87 | 1008.8 |
| 20260506080133 | 75 | 360 | 9.0 | 19.0 | 0.00 | 0.00 | 0.00 | 87 | 1008.9 |
| 20260506073448 | 75 | 360 | 8.0 | 17.0 | 0.00 | 0.00 | 0.00 | 87 | 1009.1 |
| 20260506073329 | 75 | 360 | 7.0 | 16.0 | 0.00 | 0.00 | 0.00 | 87 | 1009.1 |
| 20260506073230 | 75 | 360 | 8.0 | 16.0 | 0.00 | 0.00 | 0.00 | 87 | 1009.1 |
| 20260506073130 | 75 | 360 | 8.0 | 16.0 | 0.00 | 0.00 | 0.00 | 87 | 1009.1 |
| 20260506073030 | 75 | 360 | 9.0 | 17.0 | 0.00 | 0.00 | 0.00 | 87 | 1009.1 |
| 20260506072930 | 75 | 360 | 10.0 | 17.0 | 0.00 | 0.00 | 0.00 | 87 | 1009.1 |
| 20260506072831 | 75 | 360 | 10.0 | 17.0 | 0.00 | 0.00 | 0.00 | 87 | 1009.2 |
| 20260506072736 | 75 | 360 | 10.0 | 17.0 | 0.00 | 0.00 | 0.00 | 87 | 1009.2 |
| 20260506072617 | 75 | 360 | 10.0 | 20.0 | 0.00 | 0.00 | 0.00 | 87 | 1009.1 |
| 20260506072517 | 75 | 360 | 9.0 | 20.0 | 0.00 | 0.00 | 0.00 | 87 | 1009.1 |
| 20260506072417 | 75 | 360 | 9.0 | 20.0 | 0.00 | 0.00 | 0.00 | 87 | 1009.1 |
| 20260506072318 | 75 | 360 | 9.0 | 20.0 | 0.00 | 0.00 | 0.00 | 87 | 1009.2 |
| 20260506072218 | 75 | 360 | 9.0 | 20.0 | 0.00 | 0.00 | 0.00 | 87 | 1009.2 |
| 20260506072119 | 75 | 360 | 8.0 | 20.0 | 0.00 | 0.00 | 0.00 | 87 | 1009.2 |
| 20260506072024 | 75 | 360 | 9.0 | 20.0 | 0.00 | 0.00 | 0.00 | 87 | 1009.2 |
| 20260506071924 | 75 | 360 | 9.0 | 20.0 | 0.00 | 0.00 | 0.00 | 87 | 1009.4 |
| 20260506071825 | 75 | 360 | 9.0 | 20.0 | 0.00 | 0.00 | 0.00 | 87 | 1009.4 |
| 20260506071726 | 75 | 360 | 9.0 | 20.0 | 0.00 | 0.00 | 0.00 | 87 | 1009.3 |
| 20260506071646 | 75 | 360 | 8.0 | 20.0 | 0.00 | 0.00 | 0.00 | 87 | 1009.4 |
| 20260506071526 | 75 | 360 | 8.0 | 20.0 | 0.00 | 0.00 | 0.00 | 87 | 1009.4 |
| 20260506071446 | 75 | 360 | 7.0 | 20.0 | 0.00 | 0.00 | 0.00 | 87 | 1009.3 |
| 20260506071330 | 75 | 360 | 7.0 | 20.0 | 0.00 | 0.00 | 0.00 | 87 | 1009.4 |
| 20260506071232 | 75 | 360 | 7.0 | 20.0 | 0.00 | 0.00 | 0.00 | 87 | 1009.2 |
| 20260506071131 | 75 | 360 | 8.0 | 20.0 | 0.00 | 0.00 | 0.00 | 87 | 1009.3 |
| 20260506071034 | 75 | 360 | 8.0 | 20.0 | 0.00 | 0.00 | 0.00 | 87 | 1009.2 |
| 20260506070935 | 75 | 360 | 9.0 | 20.0 | 0.00 | 0.00 | 0.00 | 87 | 1009.2 |
| 20260506070816 | 75 | 360 | 9.0 | 21.0 | 0.00 | 0.00 | 0.00 | 87 | 1009.3 |
| 20260506070722 | 75 | 360 | 9.0 | 21.0 | 0.00 | 0.00 | 0.00 | 87 | 1009.2 |
| 20260506070620 | 75 | 360 | 9.0 | 21.0 | 0.00 | 0.00 | 0.00 | 87 | 1009.3 |
| 20260506070521 | 75 | 360 | 10.0 | 21.0 | 0.00 | 0.00 | 0.00 | 87 | 1009.4 |
| 20260506070422 | 75 | 360 | 9.0 | 21.0 | 0.00 | 0.00 | 0.00 | 87 | 1009.3 |
| 20260506070323 | 75 | 360 | 9.0 | 21.0 | 0.00 | 0.00 | 0.00 | 87 | 1009.4 |
| 20260506070224 | 75 | 360 | 10.0 | 21.0 | 0.00 | 0.00 | 0.00 | 87 | 1009.4 |
| 20260506070123 | 75 | 360 | 10.0 | 21.0 | 0.00 | 0.00 | 0.00 | 87 | 1009.4 |
| 20260506062436 | 75 | 360 | 6.0 | 18.0 | 0.00 | 0.00 | 0.00 | 86 | 1009.3 |
| 20260506062356 | 75 | 360 | 5.0 | 18.0 | 0.00 | 0.00 | 0.00 | 86 | 1009.4 |
| 20260506062236 | 75 | 360 | 5.0 | 18.0 | 0.00 | 0.00 | 0.00 | 86 | 1009.4 |
| 20260506062120 | 75 | 360 | 7.0 | 18.0 | 0.00 | 0.00 | 0.00 | 86 | 1009.4 |
| 20260506062021 | 75 | 360 | 8.0 | 18.0 | 0.00 | 0.00 | 0.00 | 87 | 1009.5 |
| 20260506061922 | 75 | 360 | 8.0 | 17.0 | 0.00 | 0.00 | 0.00 | 86 | 1009.5 |
| 20260506061843 | 75 | 360 | 9.0 | 17.0 | 0.00 | 0.00 | 0.00 | 87 | 1009.5 |
| 20260506061723 | 76 | 360 | 9.0 | 17.0 | 0.00 | 0.00 | 0.00 | 87 | 1009.5 |
| 20260506061643 | 76 | 360 | 9.0 | 17.0 | 0.00 | 0.00 | 0.00 | 87 | 1009.5 |
| 20260506061522 | 75 | 360 | 9.0 | 17.0 | 0.00 | 0.00 | 0.00 | 87 | 1009.5 |
| 20260506061427 | 76 | 360 | 9.0 | 16.0 | 0.00 | 0.00 | 0.00 | 87 | 1009.5 |
| 20260506061327 | 75 | 360 | 8.0 | 24.0 | 0.00 | 0.00 | 0.00 | 86 | 1009.5 |
| 20260506061228 | 75 | 360 | 7.0 | 24.0 | 0.00 | 0.00 | 0.00 | 86 | 1009.5 |
| 20260506061127 | 75 | 360 | 6.0 | 24.0 | 0.00 | 0.00 | 0.00 | 87 | 1009.5 |
| 20260506061029 | 76 | 360 | 7.0 | 24.0 | 0.00 | 0.00 | 0.00 | 87 | 1009.4 |
| 20260506060950 | 75 | 360 | 9.0 | 24.0 | 0.00 | 0.00 | 0.00 | 87 | 1009.4 |
| 20260506060828 | 75 | 360 | 10.0 | 24.0 | 0.00 | 0.00 | 0.00 | 86 | 1009.4 |
| 20260506060729 | 76 | 360 | 10.0 | 24.0 | 0.00 | 0.00 | 0.00 | 86 | 1009.4 |
| 20260506060633 | 76 | 360 | 11.0 | 24.0 | 0.00 | 0.00 | 0.00 | 86 | 1009.3 |
| 20260506060533 | 75 | 360 | 11.0 | 24.0 | 0.00 | 0.00 | 0.00 | 87 | 1009.3 |
| 20260506060434 | 75 | 360 | 12.0 | 24.0 | 0.00 | 0.00 | 0.00 | 87 | 1009.3 |
| 20260506060334 | 75 | 360 | 11.0 | 24.0 | 0.00 | 0.00 | 0.00 | 87 | 1009.3 |
| 20260506060235 | 75 | 360 | 10.0 | 24.0 | 0.00 | 0.00 | 0.00 | 87 | 1009.3 |
| 20260506060135 | 75 | 360 | 10.0 | 19.0 | 0.00 | 0.00 | 0.00 | 87 | 1009.4 |
| 20260506051315 | 0 | 0.0 | 0.0 | 0.00 | 0.00 | 0.00 | 1009.5 | ||
| 20260506051223 | 0 | 0.0 | 0.0 | 0.00 | 0.00 | 0.00 | 1009.5 | ||
| 20260506051127 | 0 | 0.0 | 0.0 | 0.00 | 0.00 | 0.00 | 1009.5 | ||
| 20260506051051 | 0 | 0.0 | 0.0 | 0.00 | 0.00 | 0.00 | 1009.5 | ||
| 20260506050914 | 0 | 0.0 | 0.0 | 0.00 | 0.00 | 0.00 | 1009.6 | ||
| 20260506050818 | 0 | 0.0 | 0.0 | 0.00 | 0.00 | 0.00 | 1009.5 | ||
| 20260506050722 | 0 | 0.0 | 0.0 | 0.00 | 0.00 | 0.00 | 1009.4 | ||
| 20260506050625 | 0 | 0.0 | 0.0 | 0.00 | 0.00 | 0.00 | 1009.4 | ||
| 20260506050553 | 0 | 0.0 | 0.0 | 0.00 | 0.00 | 0.00 | 1009.6 | ||
| 20260506050319 | 0 | 0.0 | 0.0 | 0.00 | 0.00 | 0.00 | 1009.6 | ||
| 20260506050223 | 0 | 0.0 | 0.0 | 0.00 | 0.00 | 0.00 | 1009.5 | ||
| 20260506050127 | 0 | 0.0 | 0.0 | 0.00 | 0.00 | 0.00 | 1009.5 | ||
| 20260506045116 | 0 | 0.0 | 0.0 | 0.00 | 0.00 | 0.00 | 1009.6 | ||
| 20260506045023 | 0 | 0.0 | 0.0 | 0.00 | 0.00 | 0.00 | 1009.6 | ||
| 20260506044927 | 0 | 0.0 | 0.0 | 0.00 | 0.00 | 0.00 | 1009.5 | ||
| 20260506044831 | 0 | 0.0 | 0.0 | 0.00 | 0.00 | 0.00 | 1009.5 | ||
| 20260506044754 | 0 | 0.0 | 0.0 | 0.00 | 0.00 | 0.00 | 1009.5 | ||
| 20260506044719 | 0 | 0.0 | 0.0 | 0.00 | 0.00 | 0.00 | 1009.5 | ||
| 20260506044514 | 0 | 0.0 | 0.0 | 0.00 | 0.00 | 0.00 | 1009.5 | ||
| 20260506044438 | 0 | 0.0 | 0.0 | 0.00 | 0.00 | 0.00 | 1009.5 | ||
| 20260506044325 | 0 | 0.0 | 0.0 | 0.00 | 0.00 | 0.00 | 1009.5 | ||
| 20260506044228 | 0 | 0.0 | 0.0 | 0.00 | 0.00 | 0.00 | 1009.5 | ||
| 20260506044132 | 0 | 0.0 | 0.0 | 0.00 | 0.00 | 0.00 | 1009.5 | ||
| 20260506044035 | 0 | 0.0 | 0.0 | 0.00 | 0.00 | 0.00 | 1009.4 | ||
| 20260506043938 | 0 | 0.0 | 0.0 | 0.00 | 0.00 | 0.00 | 1009.4 | ||
| 20260506043814 | 0 | 0.0 | 0.0 | 0.00 | 0.00 | 0.00 | 1009.4 | ||
| 20260506043717 | 0 | 0.0 | 0.0 | 0.00 | 0.00 | 0.00 | 1009.5 | ||
| 20260506043626 | 0 | 0.0 | 0.0 | 0.00 | 0.00 | 0.00 | 1009.5 | ||
| 20260506043530 | 0 | 0.0 | 0.0 | 0.00 | 0.00 | 0.00 | 1009.3 | ||
| 20260506043414 | 0 | 0.0 | 0.0 | 0.00 | 0.00 | 0.00 | 1009.5 | ||
| 20260506043318 | 0 | 0.0 | 0.0 | 0.00 | 0.00 | 0.00 | 1009.4 | ||
| 20260506043221 | 0 | 0.0 | 0.0 | 0.00 | 0.00 | 0.00 | 1009.4 | ||
| 20260506043125 | 0 | 0.0 | 0.0 | 0.00 | 0.00 | 0.00 | 1009.4 | ||
| 20260506043031 | 0 | 0.0 | 0.0 | 0.00 | 0.00 | 0.00 | 1009.4 | ||
| 20260506042915 | 0 | 0.0 | 0.0 | 0.00 | 0.00 | 0.00 | 1009.3 | ||
| 20260506042820 | 0 | 0.0 | 0.0 | 0.00 | 0.00 | 0.00 | 1009.4 | ||
| 20260506042723 | 0 | 0.0 | 0.0 | 0.00 | 0.00 | 0.00 | 1009.4 | ||
| 20260506042646 | 0 | 0.0 | 0.0 | 0.00 | 0.00 | 0.00 | 1009.4 | ||
| 20260506042528 | 0 | 0.0 | 0.0 | 0.00 | 0.00 | 0.00 | 1009.4 | ||
| 20260506042436 | 0 | 0.0 | 0.0 | 0.00 | 0.00 | 0.00 | 1009.4 | ||
| 20260506042338 | 0 | 0.0 | 0.0 | 0.00 | 0.00 | 0.00 | 1009.4 | ||
| 20260506042214 | 0 | 0.0 | 0.0 | 0.00 | 0.00 | 0.00 | 1009.3 | ||
| 20260506042118 | 0 | 0.0 | 0.0 | 0.00 | 0.00 | 0.00 | 1009.4 | ||
| 20260506042021 | 0 | 0.0 | 0.0 | 0.00 | 0.00 | 0.00 | 1009.4 | ||
| 20260506041925 | 0 | 0.0 | 0.0 | 0.00 | 0.00 | 0.00 | 1009.4 | ||
| 20260506041828 | 0 | 0.0 | 0.0 | 0.00 | 0.00 | 0.00 | 1009.3 | ||
| 20260506041715 | 0 | 0.0 | 0.0 | 0.00 | 0.00 | 0.00 | 1009.4 | ||
| 20260506041618 | 0 | 0.0 | 0.0 | 0.00 | 0.00 | 0.00 | 1009.4 | ||
| 20260506041522 | 0 | 0.0 | 0.0 | 0.00 | 0.00 | 0.00 | 1009.3 | ||
| 20260506041446 | 0 | 0.0 | 0.0 | 0.00 | 0.00 | 0.00 | 1009.2 | ||
| 20260506041315 | 0 | 0.0 | 0.0 | 0.00 | 0.00 | 0.00 | 1009.3 | ||
| 20260506041239 | 0 | 0.0 | 0.0 | 0.00 | 0.00 | 0.00 | 1009.3 | ||
| 20260506041123 | 0 | 0.0 | 0.0 | 0.00 | 0.00 | 0.00 | 1009.3 | ||
| 20260506041030 | 0 | 0.0 | 0.0 | 0.00 | 0.00 | 0.00 | 1009.3 | ||
| 20260506040913 | 0 | 0.0 | 0.0 | 0.00 | 0.00 | 0.00 | 1009.2 | ||
| 20260506040838 | 0 | 0.0 | 0.0 | 0.00 | 0.00 | 0.00 | 1009.3 | ||
| 20260506040719 | 0 | 0.0 | 0.0 | 0.00 | 0.00 | 0.00 | 1009.2 | ||
| 20260506040623 | 0 | 0.0 | 0.0 | 0.00 | 0.00 | 0.00 | 1009.2 | ||
| 20260506040526 | 0 | 0.0 | 0.0 | 0.00 | 0.00 | 0.00 | 1009.3 | ||
| 20260506040415 | 0 | 0.0 | 0.0 | 0.00 | 0.00 | 0.00 | 1009.4 | ||
| 20260506040339 | 0 | 0.0 | 0.0 | 0.00 | 0.00 | 0.00 | 1009.4 | ||
| 20260506040214 | 0 | 0.0 | 0.0 | 0.00 | 0.00 | 0.00 | 1009.2 | ||
| 20260506040139 | 0 | 0.0 | 0.0 | 0.00 | 0.00 | 0.00 | 1009.2 | ||
| 20260506040014 | 0 | 0.0 | 0.0 | 0.00 | 0.00 | 0.00 | 1009.1 | ||
| 20260506035918 | 0 | 0.0 | 0.0 | 0.00 | 0.00 | 0.00 | 1009.1 | ||
| 20260506035842 | 0 | 0.0 | 0.0 | 0.00 | 0.00 | 0.00 | 1009.1 | ||
| 20260506035750 | 0 | 0.0 | 0.0 | 0.00 | 0.00 | 0.00 | 1009.1 | ||
| 20260506035713 | 0 | 0.0 | 0.0 | 0.00 | 0.00 | 0.00 | 1009.1 | ||
| 20260506035532 | 0 | 0.0 | 0.0 | 0.00 | 0.00 | 0.00 | 1009.1 | ||
| 20260506035416 | 0 | 0.0 | 0.0 | 0.00 | 0.00 | 0.00 | 1009.1 | ||
| 20260506035321 | 0 | 0.0 | 0.0 | 0.00 | 0.00 | 0.00 | 1009.0 | ||
| 20260506035225 | 0 | 0.0 | 0.0 | 0.00 | 0.00 | 0.00 | 1009.0 | ||
| 20260506035128 | 0 | 0.0 | 0.0 | 0.00 | 0.00 | 0.00 | 1009.1 | ||
| 20260506035015 | 0 | 0.0 | 0.0 | 0.00 | 0.00 | 0.00 | 1009.1 | ||
| 20260506034919 | 0 | 0.0 | 0.0 | 0.00 | 0.00 | 0.00 | 1009.0 | ||
| 20260506034823 | 0 | 0.0 | 0.0 | 0.00 | 0.00 | 0.00 | 1009.1 | ||
| 20260506034747 | 0 | 0.0 | 0.0 | 0.00 | 0.00 | 0.00 | 1009.1 | ||
| 20260506034628 | 0 | 0.0 | 0.0 | 0.00 | 0.00 | 0.00 | 1009.0 | ||
| 20260506034513 | 0 | 0.0 | 0.0 | 0.00 | 0.00 | 0.00 | 1009.1 | ||
| 20260506034421 | 0 | 0.0 | 0.0 | 0.00 | 0.00 | 0.00 | 1009.0 | ||
| 20260506034346 | 0 | 0.0 | 0.0 | 0.00 | 0.00 | 0.00 | 1009.0 | ||
| 20260506034229 | 0 | 0.0 | 0.0 | 0.00 | 0.00 | 0.00 | 1009.1 | ||
| 20260506034152 | 0 | 0.0 | 0.0 | 0.00 | 0.00 | 0.00 | 1009.0 | ||
| 20260506034034 | 0 | 0.0 | 0.0 | 0.00 | 0.00 | 0.00 | 1009.0 | ||
| 20260506033958 | 0 | 0.0 | 0.0 | 0.00 | 0.00 | 0.00 | 1009.0 | ||
| 20260506033751 | 0 | 0.0 | 0.0 | 0.00 | 0.00 | 0.00 | 1009.1 | ||
| 20260506033619 | 0 | 0.0 | 0.0 | 0.00 | 0.00 | 0.00 | 1008.9 | ||
| 20260506033522 | 0 | 0.0 | 0.0 | 0.00 | 0.00 | 0.00 | 1008.9 | ||
| 20260506033426 | 0 | 0.0 | 0.0 | 0.00 | 0.00 | 0.00 | 1008.9 | ||
| 20260506033328 | 0 | 0.0 | 0.0 | 0.00 | 0.00 | 0.00 | 1008.9 | ||
| 20260506033232 | 0 | 0.0 | 0.0 | 0.00 | 0.00 | 0.00 | 1008.9 | ||
| 20260506033115 | 0 | 0.0 | 0.0 | 0.00 | 0.00 | 0.00 | 1008.8 | ||
| 20260506033023 | 0 | 0.0 | 0.0 | 0.00 | 0.00 | 0.00 | 1008.7 | ||
| 20260506032926 | 0 | 0.0 | 0.0 | 0.00 | 0.00 | 0.00 | 1008.7 | ||
| 20260506032830 | 0 | 0.0 | 0.0 | 0.00 | 0.00 | 0.00 | 1008.8 | ||
| 20260506032713 | 0 | 0.0 | 0.0 | 0.00 | 0.00 | 0.00 | 1008.7 | ||
| 20260506032617 | 0 | 0.0 | 0.0 | 0.00 | 0.00 | 0.00 | 1008.7 | ||
| 20260506032521 | 0 | 0.0 | 0.0 | 0.00 | 0.00 | 0.00 | 1008.7 | ||
| 20260506032428 | 0 | 0.0 | 0.0 | 0.00 | 0.00 | 0.00 | 1008.7 | ||
| 20260506032331 | 0 | 0.0 | 0.0 | 0.00 | 0.00 | 0.00 | 1008.7 | ||
| 20260506032255 | 0 | 0.0 | 0.0 | 0.00 | 0.00 | 0.00 | 1008.7 | ||
| 20260506032030 | 0 | 0.0 | 0.0 | 0.00 | 0.00 | 0.00 | 1008.7 | ||
| 20260506031914 | 0 | 0.0 | 0.0 | 0.00 | 0.00 | 0.00 | 1008.6 | ||
| 20260506031818 | 0 | 0.0 | 0.0 | 0.00 | 0.00 | 0.00 | 1008.6 | ||
| 20260506031726 | 0 | 0.0 | 0.0 | 0.00 | 0.00 | 0.00 | 1008.6 | ||
| 20260506031628 | 0 | 0.0 | 0.0 | 0.00 | 0.00 | 0.00 | 1008.5 | ||
| 20260506031531 | 0 | 0.0 | 0.0 | 0.00 | 0.00 | 0.00 | 1008.5 | ||
| 20260506031413 | 0 | 0.0 | 0.0 | 0.00 | 0.00 | 0.00 | 1008.6 | ||
| 20260506031337 | 0 | 0.0 | 0.0 | 0.00 | 0.00 | 0.00 | 1008.5 | ||
| 20260506031220 | 0 | 0.0 | 0.0 | 0.00 | 0.00 | 0.00 | 1008.5 | ||
| 20260506031124 | 0 | 0.0 | 0.0 | 0.00 | 0.00 | 0.00 | 1008.5 | ||
| 20260506031031 | 0 | 0.0 | 0.0 | 0.00 | 0.00 | 0.00 | 1008.5 | ||
| 20260506030914 | 0 | 0.0 | 0.0 | 0.00 | 0.00 | 0.00 | 1008.6 | ||
| 20260506030819 | 0 | 0.0 | 0.0 | 0.00 | 0.00 | 0.00 | 1008.5 | ||
| 20260506030721 | 0 | 0.0 | 0.0 | 0.00 | 0.00 | 0.00 | 1008.5 | ||
| 20260506030625 | 0 | 0.0 | 0.0 | 0.00 | 0.00 | 0.00 | 1008.5 | ||
| 20260506030530 | 0 | 0.0 | 0.0 | 0.00 | 0.00 | 0.00 | 1008.5 | ||
| 20260506030417 | 0 | 0.0 | 0.0 | 0.00 | 0.00 | 0.00 | 1008.4 | ||
| 20260506030341 | 0 | 0.0 | 0.0 | 0.00 | 0.00 | 0.00 | 1008.3 | ||
| 20260506030223 | 0 | 0.0 | 0.0 | 0.00 | 0.00 | 0.00 | 1008.3 | ||
| 20260506030127 | 0 | 0.0 | 0.0 | 0.00 | 0.00 | 0.00 | 1008.4 | ||
| 20260506030030 | 0 | 0.0 | 0.0 | 0.00 | 0.00 | 0.00 | 1008.3 | ||
| 20260506025913 | 0 | 0.0 | 0.0 | 0.00 | 0.00 | 0.00 | 1008.3 | ||
| 20260506025817 | 0 | 0.0 | 0.0 | 0.00 | 0.00 | 0.00 | 1008.3 | ||
| 20260506025726 | 0 | 0.0 | 0.0 | 0.00 | 0.00 | 0.00 | 1008.3 | ||
| 20260506025627 | 0 | 0.0 | 0.0 | 0.00 | 0.00 | 0.00 | 1008.4 | ||
| 20260506025531 | 0 | 0.0 | 0.0 | 0.00 | 0.00 | 0.00 | 1008.4 | ||
| 20260506025415 | 0 | 0.0 | 0.0 | 0.00 | 0.00 | 0.00 | 1008.4 | ||
| 20260506025319 | 0 | 0.0 | 0.0 | 0.00 | 0.00 | 0.00 | 1008.4 | ||
| 20260506025223 | 0 | 0.0 | 0.0 | 0.00 | 0.00 | 0.00 | 1008.4 | ||
| 20260506025129 | 0 | 0.0 | 0.0 | 0.00 | 0.00 | 0.00 | 1008.4 | ||
| 20260506025032 | 0 | 0.0 | 0.0 | 0.00 | 0.00 | 0.00 | 1008.3 | ||
| 20260506024933 | 0 | 0.0 | 0.0 | 0.00 | 0.00 | 0.00 | 1008.1 | ||
| 20260506024813 | 0 | 0.0 | 0.0 | 0.00 | 0.00 | 0.00 | 1008.2 | ||
| 20260506024736 | 0 | 0.0 | 0.0 | 0.00 | 0.00 | 0.00 | 1008.2 | ||
| 20260506024619 | 0 | 0.0 | 0.0 | 0.00 | 0.00 | 0.00 | 1008.1 | ||
| 20260506024523 | 0 | 0.0 | 0.0 | 0.00 | 0.00 | 0.00 | 1008.1 | ||
| 20260506024447 | 0 | 0.0 | 0.0 | 0.00 | 0.00 | 0.00 | 1008.0 | ||
| 20260506024332 | 0 | 0.0 | 0.0 | 0.00 | 0.00 | 0.00 | 1008.1 | ||
| 20260506024236 | 0 | 0.0 | 0.0 | 0.00 | 0.00 | 0.00 | 1008.0 | ||
| 20260506024138 | 0 | 0.0 | 0.0 | 0.00 | 0.00 | 0.00 | 1008.0 | ||
| 20260506024014 | 0 | 0.0 | 0.0 | 0.00 | 0.00 | 0.00 | 1007.9 | ||
| 20260506023938 | 0 | 0.0 | 0.0 | 0.00 | 0.00 | 0.00 | 1007.9 | ||
| 20260506023820 | 0 | 0.0 | 0.0 | 0.00 | 0.00 | 0.00 | 1007.9 | ||
| 20260506023724 | 0 | 0.0 | 0.0 | 0.00 | 0.00 | 0.00 | 1007.9 | ||
| 20260506023626 | 0 | 0.0 | 0.0 | 0.00 | 0.00 | 0.00 | 1007.9 | ||
| 20260506023514 | 0 | 0.0 | 0.0 | 0.00 | 0.00 | 0.00 | 1007.8 | ||
| 20260506023416 | 0 | 0.0 | 0.0 | 0.00 | 0.00 | 0.00 | 1007.8 | ||
| 20260506023320 | 0 | 0.0 | 0.0 | 0.00 | 0.00 | 0.00 | 1007.8 | ||
| 20260506023243 | 0 | 0.0 | 0.0 | 0.00 | 0.00 | 0.00 | 1007.8 | ||
| 20260506023126 | 0 | 0.0 | 0.0 | 0.00 | 0.00 | 0.00 | 1007.8 | ||
| 20260506023029 | 0 | 0.0 | 0.0 | 0.00 | 0.00 | 0.00 | 1007.9 | ||
| 20260506022916 | 0 | 0.0 | 0.0 | 0.00 | 0.00 | 0.00 | 1007.8 | ||
| 20260506022821 | 0 | 0.0 | 0.0 | 0.00 | 0.00 | 0.00 | 1007.7 | ||
| 20260506022744 | 0 | 0.0 | 0.0 | 0.00 | 0.00 | 0.00 | 1007.8 | ||
| 20260506022626 | 0 | 0.0 | 0.0 | 0.00 | 0.00 | 0.00 | 1007.8 | ||
| 20260506022529 | 0 | 0.0 | 0.0 | 0.00 | 0.00 | 0.00 | 1007.7 | ||
| 20260506022413 | 0 | 0.0 | 0.0 | 0.00 | 0.00 | 0.00 | 1007.7 | ||
| 20260506022319 | 0 | 0.0 | 0.0 | 0.00 | 0.00 | 0.00 | 1007.7 | ||
| 20260506022223 | 0 | 0.0 | 0.0 | 0.00 | 0.00 | 0.00 | 1007.6 | ||
| 20260506022126 | 0 | 0.0 | 0.0 | 0.00 | 0.00 | 0.00 | 1007.6 | ||
| 20260506022029 | 0 | 0.0 | 0.0 | 0.00 | 0.00 | 0.00 | 1007.7 | ||
| 20260506021953 | 0 | 0.0 | 0.0 | 0.00 | 0.00 | 0.00 | 1007.6 | ||
| 20260506021816 | 0 | 0.0 | 0.0 | 0.00 | 0.00 | 0.00 | 1007.5 | ||
| 20260506021719 | 0 | 0.0 | 0.0 | 0.00 | 0.00 | 0.00 | 1007.5 | ||
| 20260506021626 | 0 | 0.0 | 0.0 | 0.00 | 0.00 | 0.00 | 1007.5 | ||
| 20260506021530 | 0 | 0.0 | 0.0 | 0.00 | 0.00 | 0.00 | 1007.5 | ||
| 20260506021433 | 0 | 0.0 | 0.0 | 0.00 | 0.00 | 0.00 | 1007.5 | ||
| 20260506021342 | 0 | 0.0 | 0.0 | 0.00 | 0.00 | 0.00 | 1007.4 | ||
| 20260506021225 | 0 | 0.0 | 0.0 | 0.00 | 0.00 | 0.00 | 1007.4 | ||
| 20260506021128 | 0 | 0.0 | 0.0 | 0.00 | 0.00 | 0.00 | 1007.3 | ||
| 20260506021052 | 0 | 0.0 | 0.0 | 0.00 | 0.00 | 0.00 | 1007.3 | ||
| 20260506020918 | 0 | 0.0 | 0.0 | 0.00 | 0.00 | 0.00 | 1007.3 | ||
| 20260506020842 | 0 | 0.0 | 0.0 | 0.00 | 0.00 | 0.00 | 1007.4 | ||
| 20260506020745 | 0 | 0.0 | 0.0 | 0.00 | 0.00 | 0.00 | 1007.4 | ||
| 20260506020646 | 0 | 0.0 | 0.0 | 0.00 | 0.00 | 0.00 | 1007.3 | ||
| 20260506020529 | 0 | 0.0 | 0.0 | 0.00 | 0.00 | 0.00 | 1007.3 | ||
| 20260506020431 | 0 | 0.0 | 0.0 | 0.00 | 0.00 | 0.00 | 1007.4 | ||
| 20260506020315 | 0 | 0.0 | 0.0 | 0.00 | 0.00 | 0.00 | 1007.3 | ||
| 20260506020239 | 0 | 0.0 | 0.0 | 0.00 | 0.00 | 0.00 | 1007.3 | ||
| 20260506020145 | 0 | 0.0 | 0.0 | 0.00 | 0.00 | 0.00 | 1007.3 | ||
| 20260506020027 | 0 | 0.0 | 0.0 | 0.00 | 0.00 | 0.00 | 1007.3 | ||
| 20260506015951 | 0 | 0.0 | 0.0 | 0.00 | 0.00 | 0.00 | 1007.3 | ||
| 20260506015815 | 0 | 0.0 | 0.0 | 0.00 | 0.00 | 0.00 | 1007.3 | ||
| 20260506015738 | 0 | 0.0 | 0.0 | 0.00 | 0.00 | 0.00 | 1007.2 | ||
| 20260506015641 | 0 | 0.0 | 0.0 | 0.00 | 0.00 | 0.00 | 1007.2 | ||
| 20260506015522 | 0 | 0.0 | 0.0 | 0.00 | 0.00 | 0.00 | 1007.3 | ||
| 20260506015426 | 0 | 0.0 | 0.0 | 0.00 | 0.00 | 0.00 | 1007.3 | ||
| 20260506015314 | 0 | 0.0 | 0.0 | 0.00 | 0.00 | 0.00 | 1007.2 | ||
| 20260506015218 | 0 | 0.0 | 0.0 | 0.00 | 0.00 | 0.00 | 1007.2 | ||
| 20260506015121 | 0 | 0.0 | 0.0 | 0.00 | 0.00 | 0.00 | 1007.2 | ||
| 20260506015025 | 0 | 0.0 | 0.0 | 0.00 | 0.00 | 0.00 | 1007.2 | ||
| 20260506014950 | 0 | 0.0 | 0.0 | 0.00 | 0.00 | 0.00 | 1007.1 | ||
| 20260506014813 | 0 | 0.0 | 0.0 | 0.00 | 0.00 | 0.00 | 1007.1 | ||
| 20260506014740 | 0 | 0.0 | 0.0 | 0.00 | 0.00 | 0.00 | 1007.1 | ||
| 20260506014617 | 0 | 0.0 | 0.0 | 0.00 | 0.00 | 0.00 | 1007.2 | ||
| 20260506014521 | 0 | 0.0 | 0.0 | 0.00 | 0.00 | 0.00 | 1007.2 | ||
| 20260506014444 | 0 | 0.0 | 0.0 | 0.00 | 0.00 | 0.00 | 1007.3 | ||
| 20260506014326 | 0 | 0.0 | 0.0 | 0.00 | 0.00 | 0.00 | 1007.3 | ||
| 20260506014228 | 0 | 0.0 | 0.0 | 0.00 | 0.00 | 0.00 | 1007.2 | ||
| 20260506013409 | 80 | 360 | 5.0 | 9.0 | 0.00 | 0.00 | 0.00 | 78 | 1007.1 |
| 20260506013244 | 80 | 360 | 5.0 | 9.0 | 0.00 | 0.00 | 0.00 | 78 | 1007.1 |
| 20260506013116 | 80 | 360 | 5.0 | 9.0 | 0.00 | 0.00 | 0.00 | 78 | 1007.1 |
| 20260506013017 | 80 | 360 | 5.0 | 9.0 | 0.00 | 0.00 | 0.00 | 78 | 1007.1 |
| 20260506012918 | 80 | 360 | 5.0 | 10.0 | 0.00 | 0.00 | 0.00 | 78 | 1007.1 |
| 20260506012820 | 80 | 360 | 5.0 | 10.0 | 0.00 | 0.00 | 0.00 | 78 | 1007.1 |
| 20260506012724 | 80 | 360 | 5.0 | 10.0 | 0.00 | 0.00 | 0.00 | 78 | 1007.0 |
| 20260506012624 | 80 | 360 | 5.0 | 10.0 | 0.00 | 0.00 | 0.00 | 78 | 1007.0 |
| 20260506012544 | 80 | 360 | 5.0 | 10.0 | 0.00 | 0.00 | 0.00 | 78 | 1007.0 |
| 20260506012424 | 80 | 360 | 5.0 | 10.0 | 0.00 | 0.00 | 0.00 | 77 | 1007.0 |
| 20260506012325 | 80 | 360 | 5.0 | 10.0 | 0.00 | 0.00 | 0.00 | 77 | 1007.0 |
| 20260506012224 | 80 | 360 | 5.0 | 10.0 | 0.00 | 0.00 | 0.00 | 77 | 1007.0 |
| 20260506012126 | 80 | 360 | 5.0 | 10.0 | 0.00 | 0.00 | 0.00 | 77 | 1007.0 |
| 20260506012030 | 80 | 360 | 5.0 | 10.0 | 0.00 | 0.00 | 0.00 | 77 | 1007.0 |
| 20260506011931 | 80 | 360 | 6.0 | 10.0 | 0.00 | 0.00 | 0.00 | 77 | 1007.1 |
| 20260506011831 | 80 | 360 | 6.0 | 10.0 | 0.00 | 0.00 | 0.00 | 77 | 1007.0 |
| 20260506011732 | 80 | 360 | 6.0 | 10.0 | 0.00 | 0.00 | 0.00 | 77 | 1007.1 |
| 20260506011633 | 80 | 360 | 6.0 | 10.0 | 0.00 | 0.00 | 0.00 | 77 | 1007.0 |
| 20260506011534 | 80 | 360 | 6.0 | 10.0 | 0.00 | 0.00 | 0.00 | 77 | 1007.1 |
| 20260506011418 | 80 | 360 | 6.0 | 10.0 | 0.00 | 0.00 | 0.00 | 77 | 1007.1 |
| 20260506011319 | 81 | 360 | 6.0 | 10.0 | 0.00 | 0.00 | 0.00 | 77 | 1007.1 |
| 20260506011219 | 81 | 360 | 6.0 | 10.0 | 0.00 | 0.00 | 0.00 | 76 | 1007.1 |
| 20260506011119 | 81 | 360 | 6.0 | 10.0 | 0.00 | 0.00 | 0.00 | 76 | 1007.1 |
| 20260506011022 | 81 | 360 | 5.0 | 9.0 | 0.00 | 0.00 | 0.00 | 76 | 1007.2 |
| 20260506010921 | 81 | 360 | 5.0 | 9.0 | 0.00 | 0.00 | 0.00 | 76 | 1007.1 |
| 20260506010842 | 81 | 360 | 5.0 | 9.0 | 0.00 | 0.00 | 0.00 | 76 | 1007.2 |
| 20260506010721 | 81 | 360 | 5.0 | 9.0 | 0.00 | 0.00 | 0.00 | 76 | 1007.3 |
| 20260506010624 | 81 | 360 | 5.0 | 9.0 | 0.00 | 0.00 | 0.00 | 76 | 1007.2 |
| 20260506010524 | 81 | 360 | 5.0 | 9.0 | 0.00 | 0.00 | 0.00 | 76 | 1007.2 |
| 20260506010425 | 81 | 360 | 5.0 | 9.0 | 0.00 | 0.00 | 0.00 | 76 | 1007.2 |
| 20260506010325 | 81 | 360 | 5.0 | 9.0 | 0.00 | 0.00 | 0.00 | 76 | 1007.0 |
| 20260506010245 | 81 | 360 | 5.0 | 9.0 | 0.00 | 0.00 | 0.00 | 76 | 1007.0 |
| 20260506010145 | 81 | 360 | 5.0 | 9.0 | 0.00 | 0.00 | 0.00 | 76 | 1007.0 |
| 20260506010024 | 81 | 360 | 5.0 | 9.0 | 0.00 | 0.00 | 0.00 | 76 | 1007.1 |
| 20260506005925 | 81 | 360 | 5.0 | 9.0 | 0.00 | 0.00 | 0.00 | 76 | 1007.1 |
| 20260506005830 | 81 | 360 | 5.0 | 9.0 | 0.00 | 0.00 | 0.00 | 75 | 1007.1 |
| 20260506005732 | 81 | 360 | 5.0 | 9.0 | 0.00 | 0.00 | 0.00 | 75 | 1007.1 |
| 20260506005632 | 81 | 360 | 5.0 | 9.0 | 0.00 | 0.00 | 0.00 | 75 | 1007.1 |
| 20260506005533 | 81 | 360 | 5.0 | 9.0 | 0.00 | 0.00 | 0.00 | 75 | 1007.0 |
| 20260506005433 | 81 | 360 | 5.0 | 8.0 | 0.00 | 0.00 | 0.00 | 75 | 1007.1 |
| 20260506005333 | 81 | 360 | 5.0 | 8.0 | 0.00 | 0.00 | 0.00 | 75 | 1007.1 |
| 20260506005218 | 81 | 360 | 4.0 | 8.0 | 0.00 | 0.00 | 0.00 | 74 | 1007.1 |
| 20260506005119 | 81 | 360 | 4.0 | 8.0 | 0.00 | 0.00 | 0.00 | 74 | 1007.0 |
| 20260506005019 | 82 | 360 | 4.0 | 8.0 | 0.00 | 0.00 | 0.00 | 74 | 1007.1 |
| 20260506004940 | 82 | 360 | 4.0 | 8.0 | 0.00 | 0.00 | 0.00 | 74 | 1007.1 |
| 20260506004820 | 82 | 360 | 4.0 | 8.0 | 0.00 | 0.00 | 0.00 | 74 | 1007.1 |
| 20260506004721 | 82 | 360 | 4.0 | 8.0 | 0.00 | 0.00 | 0.00 | 74 | 1007.1 |
| 20260506004623 | 82 | 360 | 4.0 | 8.0 | 0.00 | 0.00 | 0.00 | 74 | 1007.2 |
| 20260506004528 | 82 | 360 | 4.0 | 8.0 | 0.00 | 0.00 | 0.00 | 74 | 1007.2 |
| 20260506004448 | 82 | 360 | 4.0 | 8.0 | 0.00 | 0.00 | 0.00 | 74 | 1007.2 |
| 20260506004327 | 82 | 360 | 4.0 | 8.0 | 0.00 | 0.00 | 0.00 | 74 | 1007.1 |
| 20260506004228 | 82 | 360 | 4.0 | 8.0 | 0.00 | 0.00 | 0.00 | 74 | 1007.2 |
| 20260506004129 | 82 | 360 | 4.0 | 8.0 | 0.00 | 0.00 | 0.00 | 74 | 1007.1 |
| 20260506004029 | 82 | 360 | 4.0 | 8.0 | 0.00 | 0.00 | 0.00 | 74 | 1007.1 |
| 20260506003930 | 82 | 360 | 4.0 | 8.0 | 0.00 | 0.00 | 0.00 | 74 | 1007.0 |
| 20260506003849 | 82 | 360 | 4.0 | 8.0 | 0.00 | 0.00 | 0.00 | 74 | 1007.0 |
| 20260506003733 | 82 | 360 | 3.0 | 8.0 | 0.00 | 0.00 | 0.00 | 74 | 1007.1 |
| 20260506003634 | 82 | 360 | 3.0 | 8.0 | 0.00 | 0.00 | 0.00 | 73 | 1007.0 |
| 20260506003534 | 82 | 360 | 4.0 | 12.0 | 0.00 | 0.00 | 0.00 | 73 | 1007.0 |
| 20260506003435 | 82 | 360 | 4.0 | 12.0 | 0.00 | 0.00 | 0.00 | 73 | 1007.0 |
| 20260506003316 | 82 | 360 | 4.0 | 12.0 | 0.00 | 0.00 | 0.00 | 73 | 1007.0 |
| 20260506003215 | 82 | 360 | 4.0 | 12.0 | 0.00 | 0.00 | 0.00 | 73 | 1007.0 |
| 20260506003120 | 82 | 360 | 4.0 | 12.0 | 0.00 | 0.00 | 0.00 | 73 | 1007.0 |
| 20260506003021 | 82 | 360 | 4.0 | 12.0 | 0.00 | 0.00 | 0.00 | 73 | 1007.0 |
| 20260506002922 | 82 | 360 | 4.0 | 12.0 | 0.00 | 0.00 | 0.00 | 73 | 1007.0 |
| 20260506002824 | 82 | 360 | 4.0 | 12.0 | 0.00 | 0.00 | 0.00 | 73 | 1007.0 |
| 20260506002724 | 82 | 360 | 4.0 | 12.0 | 0.00 | 0.00 | 0.00 | 73 | 1006.9 |
| 20260506002644 | 82 | 360 | 4.0 | 12.0 | 0.00 | 0.00 | 0.00 | 73 | 1006.9 |
| 20260506002524 | 82 | 360 | 3.0 | 12.0 | 0.00 | 0.00 | 0.00 | 73 | 1007.0 |
| 20260506002429 | 82 | 360 | 3.0 | 9.0 | 0.00 | 0.00 | 0.00 | 73 | 1007.0 |
| 20260506002350 | 82 | 360 | 3.0 | 9.0 | 0.00 | 0.00 | 0.00 | 73 | 1007.0 |
| 20260506002229 | 82 | 360 | 3.0 | 9.0 | 0.00 | 0.00 | 0.00 | 73 | 1007.0 |
| 20260506002129 | 82 | 360 | 3.0 | 9.0 | 0.00 | 0.00 | 0.00 | 73 | 1007.0 |
| 20260506002029 | 82 | 360 | 3.0 | 9.0 | 0.00 | 0.00 | 0.00 | 73 | 1007.0 |
| 20260506001930 | 82 | 360 | 2.0 | 9.0 | 0.00 | 0.00 | 0.00 | 73 | 1007.0 |
| 20260506001851 | 82 | 360 | 2.0 | 9.0 | 0.00 | 0.00 | 0.00 | 73 | 1007.0 |
| 20260506001748 | 82 | 360 | 3.0 | 9.0 | 0.00 | 0.00 | 0.00 | 73 | 1007.0 |
| 20260506001631 | 82 | 360 | 3.0 | 9.0 | 0.00 | 0.00 | 0.00 | 73 | 1007.0 |
| 20260506001531 | 82 | 360 | 3.0 | 9.0 | 0.00 | 0.00 | 0.00 | 73 | 1007.0 |
| 20260506001432 | 82 | 360 | 3.0 | 9.0 | 0.00 | 0.00 | 0.00 | 73 | 1007.1 |
| 20260506001353 | 82 | 360 | 4.0 | 9.0 | 0.00 | 0.00 | 0.00 | 73 | 1007.0 |
| 20260506001234 | 82 | 360 | 4.0 | 9.0 | 0.00 | 0.00 | 0.00 | 73 | 1007.0 |
| 20260506001154 | 82 | 360 | 4.0 | 9.0 | 0.00 | 0.00 | 0.00 | 73 | 1007.0 |
| 20260506001033 | 82 | 360 | 4.0 | 9.0 | 0.00 | 0.00 | 0.00 | 73 | 1007.0 |
| 20260506000917 | 82 | 360 | 4.0 | 8.0 | 0.00 | 0.00 | 0.00 | 72 | 1007.0 |
| 20260506000818 | 82 | 360 | 4.0 | 8.0 | 0.00 | 0.00 | 0.00 | 72 | 1007.0 |
| 20260506000719 | 83 | 360 | 4.0 | 8.0 | 0.00 | 0.00 | 0.00 | 72 | 1006.9 |
| 20260506000619 | 83 | 360 | 3.0 | 8.0 | 0.00 | 0.00 | 0.00 | 72 | 1006.9 |
| 20260506000520 | 83 | 360 | 3.0 | 9.0 | 0.00 | 0.00 | 0.00 | 72 | 1006.7 |
| 20260506000420 | 83 | 360 | 3.0 | 9.0 | 0.00 | 0.00 | 0.00 | 72 | 1006.8 |
| 20260506000322 | 83 | 360 | 4.0 | 9.0 | 0.00 | 0.00 | 0.00 | 72 | 1006.9 |
| 20260506000226 | 83 | 360 | 4.0 | 12.0 | 0.00 | 0.00 | 0.00 | 72 | 1006.8 |
| 20260506000125 | 83 | 360 | 4.0 | 12.0 | 0.00 | 0.00 | 0.00 | 72 | 1006.9 |
| 20260506000027 | 83 | 360 | 4.0 | 12.0 | 0.00 | 0.00 | 0.00 | 71 | 1006.9 |
| 20260505235927 | 83 | 360 | 5.0 | 12.0 | 0.00 | 0.00 | 0.00 | 71 | 1006.8 |
| 20260505235827 | 83 | 360 | 5.0 | 12.0 | 0.00 | 0.00 | 0.00 | 71 | 1006.9 |
| 20260505235729 | 83 | 360 | 5.0 | 12.0 | 0.00 | 0.00 | 0.00 | 71 | 1006.9 |
| 20260505235631 | 83 | 360 | 5.0 | 12.0 | 0.00 | 0.00 | 0.00 | 71 | 1006.9 |
| 20260505235531 | 83 | 360 | 4.0 | 10.0 | 0.00 | 0.00 | 0.00 | 71 | 1006.9 |
| 20260505235432 | 83 | 360 | 4.0 | 10.0 | 0.00 | 0.00 | 0.00 | 71 | 1006.8 |
| 20260505235331 | 83 | 360 | 4.0 | 10.0 | 0.00 | 0.00 | 0.00 | 72 | 1006.7 |
| 20260505235232 | 83 | 360 | 3.0 | 10.0 | 0.00 | 0.00 | 0.00 | 72 | 1006.7 |
| 20260505235133 | 83 | 360 | 3.0 | 10.0 | 0.00 | 0.00 | 0.00 | 72 | 1006.9 |
| 20260505235033 | 83 | 360 | 3.0 | 10.0 | 0.00 | 0.00 | 0.00 | 72 | 1006.8 |
| 20260505234917 | 83 | 360 | 4.0 | 14.0 | 0.00 | 0.00 | 0.00 | 72 | 1006.8 |
| 20260505234817 | 83 | 360 | 3.0 | 14.0 | 0.00 | 0.00 | 0.00 | 72 | 1006.7 |
| 20260505234718 | 83 | 360 | 4.0 | 14.0 | 0.00 | 0.00 | 0.00 | 72 | 1006.7 |
| 20260505234619 | 83 | 360 | 4.0 | 14.0 | 0.00 | 0.00 | 0.00 | 72 | 1006.7 |
| 20260505234518 | 83 | 360 | 5.0 | 14.0 | 0.00 | 0.00 | 0.00 | 72 | 1006.8 |
| 20260505234419 | 83 | 360 | 6.0 | 14.0 | 0.00 | 0.00 | 0.00 | 71 | 1006.7 |
| 20260505234340 | 83 | 360 | 6.0 | 14.0 | 0.00 | 0.00 | 0.00 | 71 | 1006.6 |
| 20260505234224 | 83 | 360 | 5.0 | 14.0 | 0.00 | 0.00 | 0.00 | 71 | 1006.6 |
| 20260505234125 | 83 | 360 | 5.0 | 14.0 | 0.00 | 0.00 | 0.00 | 71 | 1006.6 |
| 20260505234024 | 83 | 360 | 5.0 | 14.0 | 0.00 | 0.00 | 0.00 | 71 | 1006.6 |
| 20260505233925 | 83 | 360 | 4.0 | 13.0 | 0.00 | 0.00 | 0.00 | 72 | 1006.7 |
| 20260505233845 | 83 | 360 | 4.0 | 13.0 | 0.00 | 0.00 | 0.00 | 72 | 1006.6 |
| 20260505233724 | 83 | 360 | 4.0 | 13.0 | 0.00 | 0.00 | 0.00 | 72 | 1006.7 |
| 20260505233624 | 83 | 360 | 4.0 | 13.0 | 0.00 | 0.00 | 0.00 | 72 | 1006.7 |
| 20260505233529 | 83 | 360 | 4.0 | 13.0 | 0.00 | 0.00 | 0.00 | 72 | 1006.7 |
| 20260505233430 | 83 | 360 | 4.0 | 13.0 | 0.00 | 0.00 | 0.00 | 72 | 1006.7 |
| 20260505233331 | 83 | 360 | 5.0 | 13.0 | 0.00 | 0.00 | 0.00 | 72 | 1006.7 |
| 20260505233231 | 83 | 360 | 6.0 | 13.0 | 0.00 | 0.00 | 0.00 | 72 | 1006.7 |
| 20260505233134 | 83 | 360 | 6.0 | 13.0 | 0.00 | 0.00 | 0.00 | 72 | 1006.8 |
| 20260505233034 | 83 | 360 | 6.0 | 15.0 | 0.00 | 0.00 | 0.00 | 72 | 1006.8 |
| 20260505232919 | 83 | 360 | 5.0 | 15.0 | 0.00 | 0.00 | 0.00 | 72 | 1006.7 |
| 20260505232821 | 83 | 360 | 5.0 | 15.0 | 0.00 | 0.00 | 0.00 | 72 | 1006.7 |
| 20260505232720 | 83 | 360 | 6.0 | 15.0 | 0.00 | 0.00 | 0.00 | 72 | 1006.8 |
| 20260505232621 | 83 | 360 | 6.0 | 15.0 | 0.00 | 0.00 | 0.00 | 72 | 1006.8 |
| 20260505232522 | 83 | 360 | 6.0 | 15.0 | 0.00 | 0.00 | 0.00 | 72 | 1006.7 |
| 20260505232423 | 82 | 360 | 7.0 | 15.0 | 0.00 | 0.00 | 0.00 | 72 | 1006.7 |
| 20260505232323 | 82 | 360 | 8.0 | 15.0 | 0.00 | 0.00 | 0.00 | 72 | 1006.7 |
| 20260505232227 | 82 | 360 | 7.0 | 15.0 | 0.00 | 0.00 | 0.00 | 72 | 1006.7 |
| 20260505232128 | 82 | 360 | 6.0 | 15.0 | 0.00 | 0.00 | 0.00 | 72 | 1006.7 |
| 20260505232028 | 82 | 360 | 6.0 | 15.0 | 0.00 | 0.00 | 0.00 | 72 | 1006.6 |
| 20260505231949 | 82 | 360 | 5.0 | 15.0 | 0.00 | 0.00 | 0.00 | 72 | 1006.7 |
| 20260505231827 | 83 | 360 | 5.0 | 15.0 | 0.00 | 0.00 | 0.00 | 72 | 1006.7 |
| 20260505231728 | 83 | 360 | 5.0 | 15.0 | 0.00 | 0.00 | 0.00 | 71 | 1006.7 |
| 20260505231631 | 83 | 360 | 5.0 | 13.0 | 0.00 | 0.00 | 0.00 | 71 | 1006.7 |
| 20260505231535 | 83 | 360 | 5.0 | 13.0 | 0.00 | 0.00 | 0.00 | 71 | 1006.7 |
| 20260505231456 | 83 | 360 | 5.0 | 13.0 | 0.00 | 0.00 | 0.00 | 71 | 1006.8 |
| 20260505231335 | 83 | 360 | 5.0 | 13.0 | 0.00 | 0.00 | 0.00 | 71 | 1006.8 |
| 20260505231216 | 83 | 360 | 5.0 | 13.0 | 0.00 | 0.00 | 0.00 | 71 | 1006.8 |
| 20260505231116 | 83 | 360 | 4.0 | 13.0 | 0.00 | 0.00 | 0.00 | 71 | 1006.8 |
| 20260505231017 | 83 | 360 | 5.0 | 13.0 | 0.00 | 0.00 | 0.00 | 71 | 1006.7 |
| 20260505230916 | 83 | 360 | 5.0 | 13.0 | 0.00 | 0.00 | 0.00 | 71 | 1006.8 |
| 20260505230821 | 83 | 360 | 5.0 | 13.0 | 0.00 | 0.00 | 0.00 | 71 | 1006.7 |
| 20260505230722 | 83 | 360 | 5.0 | 13.0 | 0.00 | 0.00 | 0.00 | 71 | 1006.7 |
| 20260505230643 | 83 | 360 | 6.0 | 13.0 | 0.00 | 0.00 | 0.00 | 71 | 1006.7 |
| 20260505230522 | 83 | 360 | 5.0 | 13.0 | 0.00 | 0.00 | 0.00 | 71 | 1006.6 |
| 20260505230442 | 83 | 360 | 5.0 | 13.0 | 0.00 | 0.00 | 0.00 | 71 | 1006.6 |
| 20260505230316 | 83 | 360 | 6.0 | 13.0 | 0.00 | 0.00 | 0.00 | 71 | 1006.6 |
| 20260505230216 | 83 | 360 | 7.0 | 16.0 | 0.00 | 0.00 | 0.00 | 71 | 1006.6 |
| 20260505230121 | 83 | 360 | 7.0 | 16.0 | 0.00 | 0.00 | 0.00 | 71 | 1006.6 |
| 20260505230021 | 83 | 360 | 7.0 | 15.0 | 0.00 | 0.00 | 0.00 | 71 | 1006.5 |
| 20260505225942 | 83 | 360 | 7.0 | 15.0 | 0.00 | 0.00 | 0.00 | 71 | 1006.6 |
| 20260505225822 | 83 | 360 | 6.0 | 15.0 | 0.00 | 0.00 | 0.00 | 71 | 1006.6 |
| 20260505225744 | 83 | 360 | 6.0 | 15.0 | 0.00 | 0.00 | 0.00 | 71 | 1006.6 |
| 20260505225616 | 83 | 360 | 5.0 | 15.0 | 0.00 | 0.00 | 0.00 | 71 | 1006.5 |
| 20260505225517 | 83 | 360 | 4.0 | 15.0 | 0.00 | 0.00 | 0.00 | 71 | 1006.5 |
| 20260505225421 | 83 | 360 | 4.0 | 15.0 | 0.00 | 0.00 | 0.00 | 71 | 1006.6 |
| 20260505225323 | 83 | 360 | 4.0 | 14.0 | 0.00 | 0.00 | 0.00 | 71 | 1006.5 |
| 20260505225243 | 83 | 360 | 4.0 | 14.0 | 0.00 | 0.00 | 0.00 | 71 | 1006.5 |
| 20260505225116 | 83 | 360 | 5.0 | 14.0 | 0.00 | 0.00 | 0.00 | 71 | 1006.5 |
| 20260505225017 | 83 | 360 | 6.0 | 14.0 | 0.00 | 0.00 | 0.00 | 71 | 1006.6 |
| 20260505224918 | 83 | 360 | 6.0 | 14.0 | 0.00 | 0.00 | 0.00 | 71 | 1006.6 |
| 20260505224822 | 83 | 360 | 5.0 | 14.0 | 0.00 | 0.00 | 0.00 | 71 | 1006.6 |
| 20260505224722 | 83 | 360 | 6.0 | 14.0 | 0.00 | 0.00 | 0.00 | 70 | 1006.5 |
| 20260505224643 | 83 | 360 | 7.0 | 14.0 | 0.00 | 0.00 | 0.00 | 70 | 1006.5 |
| 20260505224516 | 83 | 360 | 6.0 | 14.0 | 0.00 | 0.00 | 0.00 | 70 | 1006.6 |
| 20260505224417 | 83 | 360 | 6.0 | 14.0 | 0.00 | 0.00 | 0.00 | 70 | 1006.6 |
| 20260505224316 | 83 | 360 | 6.0 | 14.0 | 0.00 | 0.00 | 0.00 | 70 | 1006.6 |
| 20260505224217 | 83 | 360 | 6.0 | 16.0 | 0.00 | 0.00 | 0.00 | 70 | 1006.6 |
| 20260505224121 | 83 | 360 | 6.0 | 16.0 | 0.00 | 0.00 | 0.00 | 70 | 1006.6 |
| 20260505224022 | 83 | 360 | 7.0 | 16.0 | 0.00 | 0.00 | 0.00 | 70 | 1006.5 |
| 20260505223922 | 83 | 360 | 6.0 | 16.0 | 0.00 | 0.00 | 0.00 | 70 | 1006.5 |
| 20260505223843 | 83 | 360 | 6.0 | 16.0 | 0.00 | 0.00 | 0.00 | 70 | 1006.5 |
| 20260505223716 | 83 | 360 | 6.0 | 16.0 | 0.00 | 0.00 | 0.00 | 70 | 1006.5 |
| 20260505223617 | 83 | 360 | 8.0 | 16.0 | 0.00 | 0.00 | 0.00 | 70 | 1006.5 |
| 20260505223517 | 83 | 360 | 9.0 | 16.0 | 0.00 | 0.00 | 0.00 | 70 | 1006.5 |
| 20260505223421 | 83 | 360 | 9.0 | 16.0 | 0.00 | 0.00 | 0.00 | 70 | 1006.5 |
| 20260505223322 | 83 | 360 | 8.0 | 16.0 | 0.00 | 0.00 | 0.00 | 70 | 1006.5 |
| 20260505223242 | 83 | 360 | 9.0 | 16.0 | 0.00 | 0.00 | 0.00 | 69 | 1006.5 |
| 20260505223122 | 83 | 360 | 9.0 | 16.0 | 0.00 | 0.00 | 0.00 | 69 | 1006.5 |
| 20260505223022 | 83 | 360 | 9.0 | 16.0 | 0.00 | 0.00 | 0.00 | 69 | 1006.5 |
| 20260505222923 | 83 | 360 | 8.0 | 15.0 | 0.00 | 0.00 | 0.00 | 70 | 1006.4 |
| 20260505222845 | 83 | 360 | 8.0 | 15.0 | 0.00 | 0.00 | 0.00 | 70 | 1006.5 |
| 20260505222724 | 83 | 360 | 9.0 | 15.0 | 0.00 | 0.00 | 0.00 | 70 | 1006.5 |
| 20260505222629 | 83 | 360 | 9.0 | 15.0 | 0.00 | 0.00 | 0.00 | 70 | 1006.5 |
| 20260505222529 | 83 | 360 | 9.0 | 15.0 | 0.00 | 0.00 | 0.00 | 70 | 1006.4 |
| 20260505222430 | 83 | 360 | 9.0 | 15.0 | 0.00 | 0.00 | 0.00 | 70 | 1006.5 |
| 20260505222330 | 83 | 360 | 9.0 | 15.0 | 0.00 | 0.00 | 0.00 | 70 | 1006.6 |
| 20260505222230 | 83 | 360 | 8.0 | 15.0 | 0.00 | 0.00 | 0.00 | 70 | 1006.5 |
| 20260505222130 | 83 | 360 | 8.0 | 15.0 | 0.00 | 0.00 | 0.00 | 70 | 1006.5 |
| 20260505222016 | 83 | 360 | 7.0 | 15.0 | 0.00 | 0.00 | 0.00 | 70 | 1006.5 |
| 20260505221917 | 83 | 360 | 8.0 | 17.0 | 0.00 | 0.00 | 0.00 | 70 | 1006.6 |
| 20260505221817 | 83 | 360 | 9.0 | 17.0 | 0.00 | 0.00 | 0.00 | 70 | 1006.5 |
| 20260505221737 | 83 | 360 | 9.0 | 17.0 | 0.00 | 0.00 | 0.00 | 70 | 1006.5 |
| 20260505221617 | 83 | 360 | 8.0 | 17.0 | 0.00 | 0.00 | 0.00 | 70 | 1006.5 |
| 20260505221516 | 83 | 360 | 8.0 | 17.0 | 0.00 | 0.00 | 0.00 | 70 | 1006.5 |
| 20260505221418 | 83 | 360 | 9.0 | 17.0 | 0.00 | 0.00 | 0.00 | 70 | 1006.5 |
| 20260505221323 | 83 | 360 | 8.0 | 17.0 | 0.00 | 0.00 | 0.00 | 70 | 1006.5 |
| 20260505221223 | 83 | 360 | 7.0 | 17.0 | 0.00 | 0.00 | 0.00 | 70 | 1006.5 |
| 20260505221144 | 83 | 360 | 6.0 | 17.0 | 0.00 | 0.00 | 0.00 | 70 | 1006.5 |
| 20260505221044 | 83 | 360 | 7.0 | 17.0 | 0.00 | 0.00 | 0.00 | 70 | 1006.5 |
| 20260505220924 | 83 | 360 | 7.0 | 17.0 | 0.00 | 0.00 | 0.00 | 70 | 1006.5 |
| 20260505220824 | 83 | 360 | 6.0 | 19.0 | 0.00 | 0.00 | 0.00 | 70 | 1006.5 |
| 20260505220725 | 83 | 360 | 7.0 | 19.0 | 0.00 | 0.00 | 0.00 | 70 | 1006.5 |
| 20260505220629 | 83 | 360 | 8.0 | 19.0 | 0.00 | 0.00 | 0.00 | 70 | 1006.5 |
| 20260505220530 | 83 | 360 | 10.0 | 19.0 | 0.00 | 0.00 | 0.00 | 70 | 1006.5 |
| 20260505220451 | 83 | 360 | 11.0 | 19.0 | 0.00 | 0.00 | 0.00 | 70 | 1006.5 |
| 20260505220329 | 83 | 360 | 11.0 | 19.0 | 0.00 | 0.00 | 0.00 | 70 | 1006.5 |
| 20260505220231 | 83 | 360 | 10.0 | 19.0 | 0.00 | 0.00 | 0.00 | 70 | 1006.6 |
| 20260505220152 | 83 | 360 | 10.0 | 19.0 | 0.00 | 0.00 | 0.00 | 69 | 1006.6 |
| 20260505220051 | 84 | 360 | 9.0 | 19.0 | 0.00 | 0.00 | 0.00 | 69 | 1006.6 |
| 20260505215930 | 84 | 360 | 7.0 | 19.0 | 0.00 | 0.00 | 0.00 | 69 | 1006.6 |
| 20260505215836 | 84 | 360 | 5.0 | 18.0 | 0.00 | 0.00 | 0.00 | 69 | 1006.6 |
| 20260505215717 | 84 | 360 | 4.0 | 14.0 | 0.00 | 0.00 | 0.00 | 70 | 1006.6 |
| 20260505215616 | 84 | 360 | 4.0 | 14.0 | 0.00 | 0.00 | 0.00 | 70 | 1006.7 |
| 20260505215537 | 84 | 360 | 5.0 | 16.0 | 0.00 | 0.00 | 0.00 | 70 | 1006.7 |
| 20260505215416 | 83 | 360 | 6.0 | 16.0 | 0.00 | 0.00 | 0.00 | 70 | 1006.7 |
| 20260505215316 | 83 | 360 | 7.0 | 16.0 | 0.00 | 0.00 | 0.00 | 70 | 1006.8 |
| 20260505215218 | 83 | 360 | 7.0 | 16.0 | 0.00 | 0.00 | 0.00 | 69 | 1006.7 |
| 20260505215122 | 83 | 360 | 7.0 | 16.0 | 0.00 | 0.00 | 0.00 | 69 | 1006.8 |
| 20260505215022 | 83 | 360 | 6.0 | 16.0 | 0.00 | 0.00 | 0.00 | 69 | 1006.8 |
| 20260505214923 | 83 | 360 | 6.0 | 16.0 | 0.00 | 0.00 | 0.00 | 69 | 1006.8 |
| 20260505214824 | 83 | 360 | 6.0 | 16.0 | 0.00 | 0.00 | 0.00 | 69 | 1006.9 |
| 20260505214744 | 83 | 360 | 6.0 | 16.0 | 0.00 | 0.00 | 0.00 | 69 | 1006.9 |
| 20260505214623 | 83 | 360 | 5.0 | 16.0 | 0.00 | 0.00 | 0.00 | 69 | 1006.9 |
| 20260505214524 | 83 | 360 | 6.0 | 16.0 | 0.00 | 0.00 | 0.00 | 69 | 1006.9 |
| 20260505214447 | 83 | 360 | 6.0 | 21.0 | 0.00 | 0.00 | 0.00 | 69 | 1006.9 |
| 20260505214327 | 83 | 360 | 6.0 | 21.0 | 0.00 | 0.00 | 0.00 | 69 | 1007.0 |
| 20260505214246 | 83 | 360 | 7.0 | 24.0 | 0.00 | 0.00 | 0.00 | 70 | 1007.0 |
| 20260505214126 | 83 | 360 | 7.0 | 24.0 | 0.00 | 0.00 | 0.00 | 70 | 1007.0 |
| 20260505214046 | 83 | 360 | 8.0 | 24.0 | 0.00 | 0.00 | 0.00 | 70 | 1006.9 |
| 20260505213926 | 83 | 360 | 9.0 | 24.0 | 0.00 | 0.00 | 0.00 | 70 | 1007.0 |
| 20260505213825 | 83 | 360 | 10.0 | 24.0 | 0.00 | 0.00 | 0.00 | 70 | 1007.0 |
| 20260505213725 | 83 | 360 | 11.0 | 24.0 | 0.00 | 0.00 | 0.00 | 70 | 1006.9 |
| 20260505213644 | 83 | 360 | 11.0 | 24.0 | 0.00 | 0.00 | 0.00 | 70 | 1006.9 |
| 20260505213548 | 83 | 360 | 11.0 | 24.0 | 0.00 | 0.00 | 0.00 | 70 | 1006.9 |
| 20260505213427 | 83 | 360 | 11.0 | 24.0 | 0.00 | 0.00 | 0.00 | 70 | 1007.0 |
| 20260505213327 | 83 | 360 | 12.0 | 20.0 | 0.00 | 0.00 | 0.00 | 70 | 1007.1 |
| 20260505213227 | 83 | 360 | 11.0 | 20.0 | 0.00 | 0.00 | 0.00 | 70 | 1007.1 |
| 20260505213127 | 83 | 360 | 9.0 | 20.0 | 0.00 | 0.00 | 0.00 | 70 | 1007.1 |
| 20260505213028 | 83 | 360 | 9.0 | 20.0 | 0.00 | 0.00 | 0.00 | 69 | 1007.2 |
| 20260505212929 | 83 | 360 | 8.0 | 20.0 | 0.00 | 0.00 | 0.00 | 69 | 1007.2 |
| 20260505212833 | 84 | 360 | 7.0 | 17.0 | 0.00 | 0.00 | 0.00 | 69 | 1007.2 |
| 20260505212735 | 83 | 360 | 6.0 | 18.0 | 0.00 | 0.00 | 0.00 | 69 | 1007.1 |
| 20260505212635 | 83 | 360 | 5.0 | 18.0 | 0.00 | 0.00 | 0.00 | 69 | 1007.2 |
| 20260505212535 | 83 | 360 | 5.0 | 21.0 | 0.00 | 0.00 | 0.00 | 68 | 1007.2 |
| 20260505212435 | 83 | 360 | 5.0 | 21.0 | 0.00 | 0.00 | 0.00 | 68 | 1007.2 |
| 20260505212356 | 83 | 360 | 7.0 | 21.0 | 0.00 | 0.00 | 0.00 | 69 | 1007.3 |
| 20260505212236 | 83 | 360 | 7.0 | 21.0 | 0.00 | 0.00 | 0.00 | 69 | 1007.2 |
| 20260505212120 | 83 | 360 | 9.0 | 21.0 | 0.00 | 0.00 | 0.00 | 69 | 1007.1 |
| 20260505212040 | 83 | 360 | 11.0 | 21.0 | 0.00 | 0.00 | 0.00 | 69 | 1007.1 |
| 20260505211920 | 83 | 360 | 12.0 | 21.0 | 0.00 | 0.00 | 0.00 | 69 | 1007.0 |
| 20260505211820 | 83 | 360 | 12.0 | 21.0 | 0.00 | 0.00 | 0.00 | 69 | 1006.9 |
| 20260505211721 | 83 | 360 | 11.0 | 21.0 | 0.00 | 0.00 | 0.00 | 69 | 1007.0 |
| 20260505211622 | 83 | 360 | 11.0 | 21.0 | 0.00 | 0.00 | 0.00 | 68 | 1007.0 |
| 20260505211522 | 83 | 360 | 10.0 | 19.0 | 0.00 | 0.00 | 0.00 | 68 | 1006.9 |
| 20260505211427 | 84 | 360 | 9.0 | 19.0 | 0.00 | 0.00 | 0.00 | 68 | 1006.9 |
| 20260505211327 | 84 | 360 | 8.0 | 22.0 | 0.00 | 0.00 | 0.00 | 68 | 1007.0 |
| 20260505211228 | 83 | 360 | 7.0 | 22.0 | 0.00 | 0.00 | 0.00 | 68 | 1007.0 |
| 20260505211128 | 83 | 360 | 7.0 | 22.0 | 0.00 | 0.00 | 0.00 | 68 | 1007.1 |
| 20260505211029 | 84 | 360 | 8.0 | 22.0 | 0.00 | 0.00 | 0.00 | 68 | 1007.1 |
| 20260505210926 | 84 | 360 | 8.0 | 22.0 | 0.00 | 0.00 | 0.00 | 68 | 1007.1 |
| 20260505210826 | 84 | 360 | 9.0 | 22.0 | 0.00 | 0.00 | 0.00 | 68 | 1007.0 |
| 20260505210731 | 84 | 360 | 9.0 | 22.0 | 0.00 | 0.00 | 0.00 | 69 | 1007.1 |
| 20260505210630 | 83 | 360 | 9.0 | 22.0 | 0.00 | 0.00 | 0.00 | 69 | 1007.1 |
| 20260505210531 | 84 | 360 | 9.0 | 22.0 | 0.00 | 0.00 | 0.00 | 69 | 1007.1 |
| 20260505210432 | 84 | 360 | 8.0 | 22.0 | 0.00 | 0.00 | 0.00 | 69 | 1007.1 |
| 20260505210334 | 84 | 360 | 8.0 | 22.0 | 0.00 | 0.00 | 0.00 | 69 | 1007.3 |
| 20260505210234 | 84 | 360 | 7.0 | 18.0 | 0.00 | 0.00 | 0.00 | 69 | 1007.1 |
| 20260505210118 | 84 | 360 | 6.0 | 15.0 | 0.00 | 0.00 | 0.00 | 69 | 1007.3 |
| 20260505210039 | 83 | 360 | 6.0 | 15.0 | 0.00 | 0.00 | 0.00 | 69 | 1007.3 |
| 20260505205918 | 83 | 360 | 6.0 | 16.0 | 0.00 | 0.00 | 0.00 | 69 | 1007.4 |
| 20260505205820 | 83 | 360 | 7.0 | 19.0 | 0.00 | 0.00 | 0.00 | 69 | 1007.4 |
| 20260505205719 | 83 | 360 | 7.0 | 19.0 | 0.00 | 0.00 | 0.00 | 69 | 1007.4 |
| 20260505205618 | 83 | 360 | 8.0 | 19.0 | 0.00 | 0.00 | 0.00 | 69 | 1007.4 |
| 20260505205517 | 83 | 360 | 9.0 | 19.0 | 0.00 | 0.00 | 0.00 | 69 | 1007.4 |
| 20260505205417 | 83 | 360 | 9.0 | 19.0 | 0.00 | 0.00 | 0.00 | 68 | 1007.4 |
| 20260505205322 | 83 | 360 | 9.0 | 19.0 | 0.00 | 0.00 | 0.00 | 68 | 1007.4 |
| 20260505205222 | 83 | 360 | 9.0 | 19.0 | 0.00 | 0.00 | 0.00 | 68 | 1007.4 |
| 20260505205121 | 84 | 360 | 8.0 | 25.0 | 0.00 | 0.00 | 0.00 | 68 | 1007.4 |
| 20260505205042 | 84 | 360 | 7.0 | 25.0 | 0.00 | 0.00 | 0.00 | 69 | 1007.5 |
| 20260505204942 | 84 | 360 | 7.0 | 25.0 | 0.00 | 0.00 | 0.00 | 69 | 1007.3 |
| 20260505204821 | 83 | 360 | 6.0 | 25.0 | 0.00 | 0.00 | 0.00 | 70 | 1007.4 |
| 20260505204722 | 83 | 360 | 7.0 | 25.0 | 0.00 | 0.00 | 0.00 | 69 | 1007.4 |
| 20260505204622 | 83 | 360 | 8.0 | 25.0 | 0.00 | 0.00 | 0.00 | 69 | 1007.5 |
| 20260505204547 | 83 | 360 | 8.0 | 25.0 | 0.00 | 0.00 | 0.00 | 68 | 1007.5 |
| 20260505204427 | 83 | 360 | 9.0 | 25.0 | 0.00 | 0.00 | 0.00 | 68 | 1007.4 |
| 20260505204327 | 83 | 360 | 11.0 | 25.0 | 0.00 | 0.00 | 0.00 | 68 | 1007.5 |
| 20260505204228 | 83 | 360 | 13.0 | 25.0 | 0.00 | 0.00 | 0.00 | 68 | 1007.6 |
| 20260505204128 | 83 | 360 | 13.0 | 25.0 | 0.00 | 0.00 | 0.00 | 69 | 1007.5 |
| 20260505204029 | 83 | 360 | 13.0 | 25.0 | 0.00 | 0.00 | 0.00 | 69 | 1007.4 |
| 20260505203929 | 83 | 360 | 13.0 | 25.0 | 0.00 | 0.00 | 0.00 | 70 | 1007.6 |
| 20260505203834 | 83 | 360 | 12.0 | 25.0 | 0.00 | 0.00 | 0.00 | 69 | 1007.6 |
| 20260505203734 | 83 | 360 | 12.0 | 25.0 | 0.00 | 0.00 | 0.00 | 70 | 1007.7 |
| 20260505203634 | 83 | 360 | 11.0 | 25.0 | 0.00 | 0.00 | 0.00 | 70 | 1007.6 |
| 20260505203535 | 83 | 360 | 10.0 | 16.0 | 0.00 | 0.00 | 0.00 | 72 | 1007.7 |
| 20260505203435 | 83 | 360 | 9.0 | 16.0 | 0.00 | 0.00 | 0.00 | 71 | 1007.7 |
| 20260505203335 | 83 | 360 | 8.0 | 16.0 | 0.00 | 0.00 | 0.00 | 71 | 1007.7 |
| 20260505203220 | 83 | 360 | 7.0 | 15.0 | 0.00 | 0.00 | 0.00 | 72 | 1007.9 |
| 20260505203120 | 83 | 360 | 6.0 | 15.0 | 0.00 | 0.00 | 0.00 | 71 | 1007.9 |
| 20260505203020 | 83 | 360 | 6.0 | 15.0 | 0.00 | 0.00 | 0.00 | 72 | 1007.9 |
| 20260505202920 | 83 | 360 | 7.0 | 15.0 | 0.00 | 0.00 | 0.00 | 72 | 1008.0 |
| 20260505202823 | 82 | 360 | 7.0 | 15.0 | 0.00 | 0.00 | 0.00 | 72 | 1008.0 |
| 20260505202723 | 82 | 360 | 8.0 | 15.0 | 0.00 | 0.00 | 0.00 | 72 | 1008.0 |
| 20260505202627 | 82 | 360 | 8.0 | 15.0 | 0.00 | 0.00 | 0.00 | 72 | 1008.0 |
| 20260505202528 | 82 | 360 | 9.0 | 15.0 | 0.00 | 0.00 | 0.00 | 73 | 1008.0 |
| 20260505202428 | 82 | 360 | 8.0 | 15.0 | 0.00 | 0.00 | 0.00 | 73 | 1008.0 |
| 20260505202329 | 82 | 360 | 8.0 | 15.0 | 0.00 | 0.00 | 0.00 | 72 | 1008.1 |
| 20260505202250 | 82 | 360 | 7.0 | 17.0 | 0.00 | 0.00 | 0.00 | 72 | 1008.1 |
| 20260505202128 | 82 | 360 | 7.0 | 17.0 | 0.00 | 0.00 | 0.00 | 72 | 1008.1 |
| 20260505202049 | 82 | 360 | 7.0 | 17.0 | 0.00 | 0.00 | 0.00 | 72 | 1008.1 |
| 20260505201928 | 82 | 360 | 6.0 | 17.0 | 0.00 | 0.00 | 0.00 | 72 | 1008.1 |
| 20260505201833 | 82 | 360 | 5.0 | 17.0 | 0.00 | 0.00 | 0.00 | 71 | 1008.3 |
| 20260505201733 | 82 | 360 | 5.0 | 17.0 | 0.00 | 0.00 | 0.00 | 71 | 1008.2 |
| 20260505201634 | 82 | 360 | 6.0 | 17.0 | 0.00 | 0.00 | 0.00 | 71 | 1008.2 |
| 20260505201534 | 82 | 360 | 7.0 | 19.0 | 0.00 | 0.00 | 0.00 | 72 | 1008.2 |
| 20260505201436 | 82 | 360 | 7.0 | 19.0 | 0.00 | 0.00 | 0.00 | 72 | 1008.2 |
| 20260505201335 | 82 | 360 | 8.0 | 19.0 | 0.00 | 0.00 | 0.00 | 72 | 1008.3 |
| 20260505201220 | 82 | 360 | 10.0 | 19.0 | 0.00 | 0.00 | 0.00 | 73 | 1008.3 |
| 20260505201121 | 82 | 360 | 11.0 | 19.0 | 0.00 | 0.00 | 0.00 | 72 | 1008.3 |
| 20260505201042 | 82 | 360 | 11.0 | 19.0 | 0.00 | 0.00 | 0.00 | 72 | 1008.4 |
| 20260505200921 | 82 | 360 | 12.0 | 19.0 | 0.00 | 0.00 | 0.00 | 72 | 1008.3 |
| 20260505200822 | 82 | 360 | 13.0 | 19.0 | 0.00 | 0.00 | 0.00 | 72 | 1008.3 |
| 20260505200722 | 82 | 360 | 12.0 | 19.0 | 0.00 | 0.00 | 0.00 | 72 | 1008.3 |
| 20260505200643 | 82 | 360 | 10.0 | 19.0 | 0.00 | 0.00 | 0.00 | 72 | 1008.3 |
| 20260505200527 | 82 | 360 | 8.0 | 18.0 | 0.00 | 0.00 | 0.00 | 71 | 1008.3 |
| 20260505200428 | 83 | 360 | 6.0 | 19.0 | 0.00 | 0.00 | 0.00 | 71 | 1008.4 |
| 20260505200328 | 83 | 360 | 6.0 | 19.0 | 0.00 | 0.00 | 0.00 | 71 | 1008.3 |
| 20260505200229 | 83 | 360 | 5.0 | 19.0 | 0.00 | 0.00 | 0.00 | 71 | 1008.3 |
| 20260505200129 | 83 | 360 | 6.0 | 19.0 | 0.00 | 0.00 | 0.00 | 71 | 1008.3 |
| 20260505200029 | 82 | 360 | 7.0 | 19.0 | 0.00 | 0.00 | 0.00 | 71 | 1008.4 |
| 20260505195931 | 82 | 360 | 8.0 | 19.0 | 0.00 | 0.00 | 0.00 | 70 | 1008.4 |
| 20260505195835 | 82 | 360 | 7.0 | 19.0 | 0.00 | 0.00 | 0.00 | 70 | 1008.4 |
| 20260505195736 | 82 | 360 | 7.0 | 19.0 | 0.00 | 0.00 | 0.00 | 70 | 1008.4 |
| 20260505195617 | 83 | 360 | 7.0 | 19.0 | 0.00 | 0.00 | 0.00 | 70 | 1008.3 |
| 20260505195517 | 83 | 360 | 7.0 | 19.0 | 0.00 | 0.00 | 0.00 | 70 | 1008.4 |
| 20260505195418 | 83 | 360 | 8.0 | 18.0 | 0.00 | 0.00 | 0.00 | 71 | 1008.3 |
| 20260505195319 | 83 | 360 | 8.0 | 17.0 | 0.00 | 0.00 | 0.00 | 71 | 1008.4 |
| 20260505195243 | 82 | 360 | 9.0 | 17.0 | 0.00 | 0.00 | 0.00 | 72 | 1008.5 |
| 20260505195123 | 82 | 360 | 9.0 | 17.0 | 0.00 | 0.00 | 0.00 | 72 | 1008.4 |
| 20260505195022 | 82 | 360 | 9.0 | 18.0 | 0.00 | 0.00 | 0.00 | 72 | 1008.5 |
| 20260505194924 | 82 | 360 | 9.0 | 18.0 | 0.00 | 0.00 | 0.00 | 72 | 1008.5 |
| 20260505194825 | 82 | 360 | 10.0 | 18.0 | 0.00 | 0.00 | 0.00 | 72 | 1008.4 |
| 20260505194725 | 81 | 360 | 9.0 | 18.0 | 0.00 | 0.00 | 0.00 | 72 | 1008.4 |
| 20260505194626 | 81 | 360 | 9.0 | 18.0 | 0.00 | 0.00 | 0.00 | 73 | 1008.4 |
| 20260505194530 | 81 | 360 | 9.0 | 18.0 | 0.00 | 0.00 | 0.00 | 72 | 1008.4 |
| 20260505194431 | 81 | 360 | 10.0 | 18.0 | 0.00 | 0.00 | 0.00 | 72 | 1008.5 |
| 20260505194353 | 81 | 360 | 10.0 | 18.0 | 0.00 | 0.00 | 0.00 | 72 | 1008.6 |
| 20260505194232 | 81 | 360 | 9.0 | 18.0 | 0.00 | 0.00 | 0.00 | 72 | 1008.6 |
| 20260505194133 | 81 | 360 | 9.0 | 18.0 | 0.00 | 0.00 | 0.00 | 71 | 1008.5 |
| 20260505194033 | 82 | 360 | 8.0 | 15.0 | 0.00 | 0.00 | 0.00 | 71 | 1008.6 |
| 20260505193918 | 82 | 360 | 6.0 | 14.0 | 0.00 | 0.00 | 0.00 | 71 | 1008.6 |
| 20260505193819 | 82 | 360 | 7.0 | 14.0 | 0.00 | 0.00 | 0.00 | 71 | 1008.6 |
| 20260505193719 | 82 | 360 | 7.0 | 14.0 | 0.00 | 0.00 | 0.00 | 73 | 1008.6 |
| 20260505193619 | 82 | 360 | 6.0 | 14.0 | 0.00 | 0.00 | 0.00 | 73 | 1008.6 |
| 20260505193519 | 82 | 360 | 7.0 | 14.0 | 0.00 | 0.00 | 0.00 | 73 | 1008.5 |
| 20260505193418 | 82 | 360 | 9.0 | 14.0 | 0.00 | 0.00 | 0.00 | 73 | 1008.6 |
| 20260505193339 | 82 | 360 | 8.0 | 19.0 | 0.00 | 0.00 | 0.00 | 73 | 1008.7 |
| 20260505193218 | 81 | 360 | 8.0 | 19.0 | 0.00 | 0.00 | 0.00 | 73 | 1008.6 |
| 20260505193139 | 81 | 360 | 7.0 | 19.0 | 0.00 | 0.00 | 0.00 | 72 | 1008.6 |
| 20260505193041 | 82 | 360 | 7.0 | 19.0 | 0.00 | 0.00 | 0.00 | 72 | 1008.6 |
| 20260505192921 | 82 | 360 | 6.0 | 19.0 | 0.00 | 0.00 | 0.00 | 73 | 1008.7 |
| 20260505192822 | 82 | 360 | 5.0 | 21.0 | 0.00 | 0.00 | 0.00 | 72 | 1008.7 |
| 20260505192722 | 82 | 360 | 7.0 | 21.0 | 0.00 | 0.00 | 0.00 | 72 | 1008.7 |
| 20260505192621 | 82 | 360 | 7.0 | 21.0 | 0.00 | 0.00 | 0.00 | 72 | 1008.7 |
| 20260505192543 | 82 | 360 | 7.0 | 21.0 | 0.00 | 0.00 | 0.00 | 73 | 1008.7 |
| 20260505192416 | 81 | 360 | 8.0 | 22.0 | 0.00 | 0.00 | 0.00 | 73 | 1008.7 |
| 20260505192320 | 81 | 360 | 9.0 | 22.0 | 0.00 | 0.00 | 0.00 | 73 | 1008.7 |
| 20260505192220 | 81 | 360 | 10.0 | 22.0 | 0.00 | 0.00 | 0.00 | 73 | 1008.7 |
| 20260505192122 | 81 | 360 | 9.0 | 22.0 | 0.00 | 0.00 | 0.00 | 73 | 1008.6 |
| 20260505192023 | 81 | 360 | 9.0 | 22.0 | 0.00 | 0.00 | 0.00 | 73 | 1008.6 |
| 20260505191924 | 81 | 360 | 8.0 | 22.0 | 0.00 | 0.00 | 0.00 | 73 | 1008.6 |
| 20260505191824 | 81 | 360 | 8.0 | 22.0 | 0.00 | 0.00 | 0.00 | 73 | 1008.7 |
| 20260505191728 | 81 | 360 | 8.0 | 22.0 | 0.00 | 0.00 | 0.00 | 73 | 1008.7 |
| 20260505191628 | 81 | 360 | 10.0 | 22.0 | 0.00 | 0.00 | 0.00 | 73 | 1008.6 |
| 20260505191529 | 81 | 360 | 10.0 | 22.0 | 0.00 | 0.00 | 0.00 | 73 | 1008.7 |
| 20260505191449 | 81 | 360 | 11.0 | 22.0 | 0.00 | 0.00 | 0.00 | 73 | 1008.7 |
| 20260505191330 | 82 | 360 | 12.0 | 22.0 | 0.00 | 0.00 | 0.00 | 73 | 1008.7 |
| 20260505191231 | 81 | 360 | 10.0 | 22.0 | 0.00 | 0.00 | 0.00 | 74 | 1008.7 |
| 20260505191132 | 81 | 360 | 10.0 | 18.0 | 0.00 | 0.00 | 0.00 | 73 | 1008.7 |
| 20260505191016 | 81 | 360 | 8.0 | 18.0 | 0.00 | 0.00 | 0.00 | 73 | 1008.7 |
| 20260505190917 | 81 | 360 | 8.0 | 18.0 | 0.00 | 0.00 | 0.00 | 74 | 1008.6 |
| 20260505190817 | 81 | 360 | 8.0 | 18.0 | 0.00 | 0.00 | 0.00 | 74 | 1008.7 |
| 20260505190717 | 81 | 360 | 8.0 | 18.0 | 0.00 | 0.00 | 0.00 | 74 | 1008.6 |
| 20260505190618 | 81 | 360 | 9.0 | 18.0 | 0.00 | 0.00 | 0.00 | 73 | 1008.6 |
| 20260505190539 | 81 | 360 | 6.0 | 16.0 | 0.00 | 0.00 | 0.00 | 73 | 1008.7 |
| 20260505190418 | 81 | 360 | 6.0 | 18.0 | 0.00 | 0.00 | 0.00 | 73 | 1008.7 |
| 20260505190343 | 81 | 360 | 5.0 | 18.0 | 0.00 | 0.00 | 0.00 | 73 | 1008.7 |
| 20260505190216 | 81 | 360 | 5.0 | 18.0 | 0.00 | 0.00 | 0.00 | 73 | 1008.8 |
| 20260505190118 | 81 | 360 | 4.0 | 18.0 | 0.00 | 0.00 | 0.00 | 75 | 1008.8 |
| 20260505190019 | 81 | 360 | 5.0 | 18.0 | 0.00 | 0.00 | 0.00 | 75 | 1008.9 |
| 20260505185919 | 80 | 360 | 6.0 | 18.0 | 0.00 | 0.00 | 0.00 | 75 | 1008.8 |
| 20260505185840 | 80 | 360 | 6.0 | 18.0 | 0.00 | 0.00 | 0.00 | 75 | 1008.8 |
| 20260505185739 | 80 | 360 | 7.0 | 18.0 | 0.00 | 0.00 | 0.00 | 75 | 1008.8 |
| 20260505185622 | 80 | 360 | 8.0 | 18.0 | 0.00 | 0.00 | 0.00 | 75 | 1008.9 |
| 20260505185522 | 80 | 360 | 8.0 | 18.0 | 0.00 | 0.00 | 0.00 | 75 | 1008.9 |
| 20260505185423 | 80 | 360 | 9.0 | 18.0 | 0.00 | 0.00 | 0.00 | 75 | 1009.0 |
| 20260505185323 | 80 | 360 | 9.0 | 18.0 | 0.00 | 0.00 | 0.00 | 74 | 1008.9 |
| 20260505185243 | 80 | 360 | 8.0 | 18.0 | 0.00 | 0.00 | 0.00 | 74 | 1008.9 |
| 20260505185123 | 80 | 360 | 7.0 | 18.0 | 0.00 | 0.00 | 0.00 | 74 | 1008.9 |
| 20260505185023 | 80 | 360 | 7.0 | 18.0 | 0.00 | 0.00 | 0.00 | 73 | 1009.0 |
| 20260505184928 | 81 | 360 | 7.0 | 18.0 | 0.00 | 0.00 | 0.00 | 73 | 1009.0 |
| 20260505184848 | 81 | 360 | 7.0 | 18.0 | 0.00 | 0.00 | 0.00 | 74 | 1009.0 |
| 20260505184748 | 81 | 360 | 6.0 | 13.0 | 0.00 | 0.00 | 0.00 | 74 | 1009.0 |
| 20260505184627 | 81 | 360 | 5.0 | 13.0 | 0.00 | 0.00 | 0.00 | 74 | 1008.9 |
| 20260505184527 | 81 | 360 | 6.0 | 12.0 | 0.00 | 0.00 | 0.00 | 74 | 1009.0 |
| 20260505184428 | 81 | 360 | 6.0 | 12.0 | 0.00 | 0.00 | 0.00 | 75 | 1009.0 |
| 20260505184348 | 81 | 360 | 5.0 | 12.0 | 0.00 | 0.00 | 0.00 | 75 | 1009.0 |
| 20260505184227 | 81 | 360 | 4.0 | 12.0 | 0.00 | 0.00 | 0.00 | 74 | 1009.1 |
| 20260505184132 | 81 | 360 | 4.0 | 12.0 | 0.00 | 0.00 | 0.00 | 73 | 1009.0 |
| 20260505184032 | 81 | 360 | 4.0 | 12.0 | 0.00 | 0.00 | 0.00 | 73 | 1009.0 |
| 20260505183933 | 81 | 360 | 4.0 | 12.0 | 0.00 | 0.00 | 0.00 | 74 | 1009.1 |
| 20260505183833 | 81 | 360 | 4.0 | 12.0 | 0.00 | 0.00 | 0.00 | 74 | 1009.1 |
| 20260505183734 | 80 | 360 | 4.0 | 12.0 | 0.00 | 0.00 | 0.00 | 73 | 1009.1 |
| 20260505183654 | 80 | 360 | 5.0 | 12.0 | 0.00 | 0.00 | 0.00 | 74 | 1009.2 |
| 20260505183534 | 80 | 360 | 5.0 | 12.0 | 0.00 | 0.00 | 0.00 | 74 | 1009.1 |
| 20260505183439 | 80 | 360 | 5.0 | 12.0 | 0.00 | 0.00 | 0.00 | 74 | 1009.2 |
| 20260505183318 | 80 | 360 | 5.0 | 13.0 | 0.00 | 0.00 | 0.00 | 74 | 1009.2 |
| 20260505183219 | 80 | 360 | 5.0 | 13.0 | 0.00 | 0.00 | 0.00 | 74 | 1009.2 |
| 20260505183119 | 80 | 360 | 5.0 | 13.0 | 0.00 | 0.00 | 0.00 | 75 | 1009.3 |
| 20260505183020 | 80 | 360 | 5.0 | 13.0 | 0.00 | 0.00 | 0.00 | 75 | 1009.2 |
| 20260505182920 | 80 | 360 | 4.0 | 13.0 | 0.00 | 0.00 | 0.00 | 74 | 1009.3 |
| 20260505182822 | 80 | 360 | 5.0 | 13.0 | 0.00 | 0.00 | 0.00 | 74 | 1009.2 |
| 20260505182725 | 80 | 360 | 5.0 | 13.0 | 0.00 | 0.00 | 0.00 | 75 | 1009.2 |
| 20260505182625 | 79 | 360 | 5.0 | 13.0 | 0.00 | 0.00 | 0.00 | 75 | 1009.2 |
| 20260505182546 | 79 | 360 | 5.0 | 13.0 | 0.00 | 0.00 | 0.00 | 75 | 1009.4 |
| 20260505182425 | 80 | 360 | 5.0 | 13.0 | 0.00 | 0.00 | 0.00 | 75 | 1009.4 |
| 20260505182327 | 80 | 360 | 4.0 | 12.0 | 0.00 | 0.00 | 0.00 | 75 | 1009.4 |
| 20260505182246 | 80 | 360 | 3.0 | 12.0 | 0.00 | 0.00 | 0.00 | 75 | 1009.4 |
| 20260505182125 | 80 | 360 | 4.0 | 12.0 | 0.00 | 0.00 | 0.00 | 75 | 1009.4 |
| 20260505182029 | 79 | 360 | 3.0 | 12.0 | 0.00 | 0.00 | 0.00 | 75 | 1009.4 |
| 20260505181931 | 79 | 360 | 4.0 | 12.0 | 0.00 | 0.00 | 0.00 | 75 | 1009.5 |
| 20260505181830 | 79 | 360 | 4.0 | 13.0 | 0.00 | 0.00 | 0.00 | 75 | 1009.4 |
| 20260505181728 | 79 | 360 | 4.0 | 13.0 | 0.00 | 0.00 | 0.00 | 75 | 1009.5 |
| 20260505181648 | 79 | 360 | 5.0 | 13.0 | 0.00 | 0.00 | 0.00 | 75 | 1009.5 |
| 20260505181525 | 79 | 360 | 5.0 | 13.0 | 0.00 | 0.00 | 0.00 | 75 | 1009.5 |
| 20260505181425 | 79 | 360 | 5.0 | 14.0 | 0.00 | 0.00 | 0.00 | 75 | 1009.5 |
| 20260505181330 | 79 | 360 | 5.0 | 14.0 | 0.00 | 0.00 | 0.00 | 75 | 1009.5 |
| 20260505181252 | 79 | 360 | 6.0 | 14.0 | 0.00 | 0.00 | 0.00 | 75 | 1009.5 |
| 20260505181131 | 79 | 360 | 5.0 | 14.0 | 0.00 | 0.00 | 0.00 | 75 | 1009.5 |
| 20260505181031 | 79 | 360 | 5.0 | 14.0 | 0.00 | 0.00 | 0.00 | 76 | 1009.5 |
| 20260505180931 | 79 | 360 | 4.0 | 14.0 | 0.00 | 0.00 | 0.00 | 76 | 1009.4 |
| 20260505180831 | 79 | 360 | 4.0 | 14.0 | 0.00 | 0.00 | 0.00 | 76 | 1009.5 |
| 20260505180733 | 79 | 360 | 4.0 | 14.0 | 0.00 | 0.00 | 0.00 | 76 | 1009.4 |
| 20260505180617 | 79 | 360 | 3.0 | 14.0 | 0.00 | 0.00 | 0.00 | 77 | 1009.6 |
| 20260505180518 | 79 | 360 | 3.0 | 14.0 | 0.00 | 0.00 | 0.00 | 77 | 1009.6 |
| 20260505180417 | 78 | 360 | 4.0 | 14.0 | 0.00 | 0.00 | 0.00 | 77 | 1009.5 |
| 20260505180318 | 78 | 360 | 5.0 | 14.0 | 0.00 | 0.00 | 0.00 | 77 | 1009.6 |
| 20260505180218 | 78 | 360 | 5.0 | 14.0 | 0.00 | 0.00 | 0.00 | 77 | 1009.6 |
| 20260505180120 | 78 | 360 | 5.0 | 14.0 | 0.00 | 0.00 | 0.00 | 77 | 1009.6 |
| 20260505180020 | 78 | 360 | 5.0 | 14.0 | 0.00 | 0.00 | 0.00 | 77 | 1009.6 |
| 20260505175924 | 78 | 360 | 5.0 | 14.0 | 0.00 | 0.00 | 0.00 | 77 | 1009.6 |
| 20260505175826 | 78 | 360 | 5.0 | 14.0 | 0.00 | 0.00 | 0.00 | 77 | 1009.6 |
| 20260505175725 | 78 | 360 | 5.0 | 13.0 | 0.00 | 0.00 | 0.00 | 77 | 1009.7 |
| 20260505175625 | 78 | 360 | 5.0 | 12.0 | 0.00 | 0.00 | 0.00 | 77 | 1009.7 |
| 20260505175525 | 78 | 360 | 4.0 | 12.0 | 0.00 | 0.00 | 0.00 | 77 | 1009.7 |
| 20260505175427 | 78 | 360 | 5.0 | 12.0 | 0.00 | 0.00 | 0.00 | 77 | 1009.7 |
| 20260505175330 | 78 | 360 | 5.0 | 14.0 | 0.00 | 0.00 | 0.00 | 78 | 1009.7 |
| 20260505175231 | 78 | 360 | 5.0 | 14.0 | 0.00 | 0.00 | 0.00 | 79 | 1009.7 |
| 20260505175152 | 78 | 360 | 5.0 | 14.0 | 0.00 | 0.00 | 0.00 | 77 | 1009.8 |
| 20260505175032 | 78 | 360 | 5.0 | 14.0 | 0.00 | 0.00 | 0.00 | 77 | 1009.7 |
| 20260505174932 | 78 | 360 | 5.0 | 14.0 | 0.00 | 0.00 | 0.00 | 78 | 1009.8 |
| 20260505174833 | 78 | 360 | 5.0 | 14.0 | 0.00 | 0.00 | 0.00 | 78 | 1009.8 |
| 20260505174733 | 78 | 360 | 5.0 | 14.0 | 0.00 | 0.00 | 0.00 | 78 | 1009.8 |
| 20260505174618 | 77 | 360 | 6.0 | 14.0 | 0.00 | 0.00 | 0.00 | 78 | 1009.8 |
| 20260505174517 | 77 | 360 | 7.0 | 14.0 | 0.00 | 0.00 | 0.00 | 78 | 1009.9 |
| 20260505174418 | 77 | 360 | 8.0 | 13.0 | 0.00 | 0.00 | 0.00 | 78 | 1009.9 |
| 20260505174339 | 77 | 360 | 8.0 | 13.0 | 0.00 | 0.00 | 0.00 | 78 | 1009.9 |
| 20260505174239 | 77 | 360 | 7.0 | 13.0 | 0.00 | 0.00 | 0.00 | 79 | 1009.8 |
| 20260505174138 | 77 | 360 | 7.0 | 13.0 | 0.00 | 0.00 | 0.00 | 79 | 1009.8 |
| 20260505174058 | 77 | 360 | 6.0 | 13.0 | 0.00 | 0.00 | 0.00 | 79 | 1009.9 |
| 20260505173957 | 77 | 360 | 6.0 | 13.0 | 0.00 | 0.00 | 0.00 | 79 | 1009.9 |
| 20260505173857 | 77 | 360 | 5.0 | 13.0 | 0.00 | 0.00 | 0.00 | 80 | 1009.8 |
| 20260505173739 | 77 | 360 | 4.0 | 13.0 | 0.00 | 0.00 | 0.00 | 80 | 1010.3 |
| 20260505173620 | 77 | 360 | 4.0 | 13.0 | 0.00 | 0.00 | 0.00 | 79 | 1009.9 |
| 20260505173540 | 77 | 360 | 4.0 | 13.0 | 0.00 | 0.00 | 0.00 | 80 | 1009.9 |
| 20260505173419 | 77 | 360 | 4.0 | 12.0 | 0.00 | 0.00 | 0.00 | 80 | 1009.8 |
| 20260505173319 | 77 | 360 | 4.0 | 12.0 | 0.00 | 0.00 | 0.00 | 80 | 1009.9 |
| 20260505173220 | 77 | 360 | 4.0 | 12.0 | 0.00 | 0.00 | 0.00 | 80 | 1009.9 |
| 20260505173120 | 76 | 360 | 4.0 | 12.0 | 0.00 | 0.00 | 0.00 | 80 | 1009.9 |
| 20260505173025 | 76 | 360 | 3.0 | 16.0 | 0.00 | 0.00 | 0.00 | 80 | 1010.0 |
| 20260505172925 | 76 | 360 | 3.0 | 16.0 | 0.00 | 0.00 | 0.00 | 80 | 1010.0 |
| 20260505172846 | 76 | 360 | 3.0 | 16.0 | 0.00 | 0.00 | 0.00 | 80 | 1010.0 |
| 20260505172725 | 76 | 360 | 4.0 | 16.0 | 0.00 | 0.00 | 0.00 | 80 | 1010.0 |
| 20260505172624 | 76 | 360 | 4.0 | 16.0 | 0.00 | 0.00 | 0.00 | 80 | 1010.0 |
| 20260505172524 | 76 | 360 | 5.0 | 16.0 | 0.00 | 0.00 | 0.00 | 80 | 1010.0 |
| 20260505172424 | 76 | 360 | 5.0 | 16.0 | 0.00 | 0.00 | 0.00 | 80 | 1010.1 |
| 20260505172324 | 76 | 360 | 6.0 | 16.0 | 0.00 | 0.00 | 0.00 | 80 | 1010.0 |
| 20260505172229 | 76 | 360 | 6.0 | 16.0 | 0.00 | 0.00 | 0.00 | 80 | 1010.0 |
| 20260505172130 | 76 | 360 | 6.0 | 16.0 | 0.00 | 0.00 | 0.00 | 80 | 1010.1 |
| 20260505172051 | 76 | 360 | 5.0 | 16.0 | 0.00 | 0.00 | 0.00 | 80 | 1010.1 |
| 20260505171931 | 76 | 360 | 4.0 | 12.0 | 0.00 | 0.00 | 0.00 | 80 | 1010.1 |
| 20260505171831 | 76 | 360 | 3.0 | 12.0 | 0.00 | 0.00 | 0.00 | 80 | 1010.1 |
| 20260505171751 | 76 | 360 | 2.0 | 10.0 | 0.00 | 0.00 | 0.00 | 80 | 1010.1 |
| 20260505171631 | 76 | 360 | 2.0 | 10.0 | 0.00 | 0.00 | 0.00 | 81 | 1010.1 |
| 20260505171551 | 76 | 360 | 2.0 | 10.0 | 0.00 | 0.00 | 0.00 | 81 | 1010.1 |
| 20260505171435 | 76 | 360 | 2.0 | 10.0 | 0.00 | 0.00 | 0.00 | 81 | 1010.1 |
| 20260505171336 | 76 | 360 | 2.0 | 10.0 | 0.00 | 0.00 | 0.00 | 81 | 1010.1 |
| 20260505171216 | 75 | 360 | 3.0 | 10.0 | 0.00 | 0.00 | 0.00 | 81 | 1010.0 |
| 20260505171117 | 75 | 209 | 3.0 | 10.0 | 0.00 | 0.00 | 0.00 | 81 | 1010.1 |
| 20260505171018 | 75 | 360 | 4.0 | 10.0 | 0.00 | 0.00 | 0.00 | 81 | 1010.1 |
| 20260505170919 | 76 | 360 | 4.0 | 13.0 | 0.00 | 0.00 | 0.00 | 81 | 1010.2 |
| 20260505170823 | 76 | 360 | 4.0 | 13.0 | 0.00 | 0.00 | 0.00 | 81 | 1010.1 |
| 20260505170722 | 76 | 360 | 4.0 | 13.0 | 0.00 | 0.00 | 0.00 | 81 | 1010.2 |
| 20260505170622 | 75 | 360 | 4.0 | 13.0 | 0.00 | 0.00 | 0.00 | 81 | 1010.2 |
| 20260505170523 | 75 | 360 | 4.0 | 13.0 | 0.00 | 0.00 | 0.00 | 81 | 1010.2 |
| 20260505170423 | 75 | 360 | 4.0 | 13.0 | 0.00 | 0.00 | 0.00 | 81 | 1010.2 |
| 20260505170323 | 75 | 360 | 4.0 | 13.0 | 0.00 | 0.00 | 0.00 | 81 | 1010.3 |
| 20260505170223 | 75 | 360 | 4.0 | 13.0 | 0.00 | 0.00 | 0.00 | 81 | 1010.1 |
| 20260505170127 | 75 | 360 | 4.0 | 13.0 | 0.00 | 0.00 | 0.00 | 81 | 1010.1 |
| 20260505170048 | 75 | 360 | 4.0 | 10.0 | 0.00 | 0.00 | 0.00 | 82 | 1010.2 |
| 20260505165927 | 75 | 360 | 3.0 | 10.0 | 0.00 | 0.00 | 0.00 | 82 | 1010.1 |
| 20260505165849 | 75 | 360 | 3.0 | 10.0 | 0.00 | 0.00 | 0.00 | 81 | 1010.2 |
| 20260505165808 | 75 | 360 | 3.0 | 10.0 | 0.00 | 0.00 | 0.00 | 81 | 1010.2 |
| 20260505165726 | 75 | 360 | 3.0 | 10.0 | 0.00 | 0.00 | 0.00 | 81 | 1010.2 |
| 20260505165627 | 75 | 360 | 3.0 | 10.0 | 0.00 | 0.00 | 0.00 | 81 | 1010.2 |
| 20260505165547 | 75 | 360 | 3.0 | 10.0 | 0.00 | 0.00 | 0.00 | 81 | 1010.2 |
| 20260505165427 | 75 | 360 | 2.0 | 10.0 | 0.00 | 0.00 | 0.00 | 82 | 1010.2 |
| 20260505165328 | 75 | 360 | 2.0 | 10.0 | 0.00 | 0.00 | 0.00 | 82 | 1010.2 |
| 20260505165232 | 75 | 360 | 2.0 | 10.0 | 0.00 | 0.00 | 0.00 | 82 | 1010.1 |
| 20260505165132 | 75 | 360 | 2.0 | 10.0 | 0.00 | 0.00 | 0.00 | 82 | 1010.2 |
| 20260505165033 | 75 | 360 | 2.0 | 13.0 | 0.00 | 0.00 | 0.00 | 82 | 1010.1 |
| 20260505164933 | 75 | 360 | 2.0 | 13.0 | 0.00 | 0.00 | 0.00 | 82 | 1010.1 |
| 20260505164835 | 75 | 360 | 2.0 | 13.0 | 0.00 | 0.00 | 0.00 | 82 | 1010.2 |
| 20260505164735 | 74 | 360 | 3.0 | 13.0 | 0.00 | 0.00 | 0.00 | 82 | 1010.2 |
| 20260505164619 | 74 | 360 | 3.0 | 13.0 | 0.00 | 0.00 | 0.00 | 82 | 1010.1 |
| 20260505164520 | 74 | 360 | 3.0 | 13.0 | 0.00 | 0.00 | 0.00 | 82 | 1010.2 |
| 20260505164421 | 74 | 360 | 4.0 | 13.0 | 0.00 | 0.00 | 0.00 | 83 | 1010.1 |
| 20260505164342 | 74 | 360 | 4.0 | 13.0 | 0.00 | 0.00 | 0.00 | 83 | 1010.1 |
| 20260505164215 | 74 | 360 | 4.0 | 13.0 | 0.00 | 0.00 | 0.00 | 83 | 1010.1 |
| 20260505164135 | 74 | 360 | 4.0 | 13.0 | 0.00 | 0.00 | 0.00 | 83 | 1010.1 |
| 20260505164056 | 74 | 360 | 5.0 | 13.0 | 0.00 | 0.00 | 0.00 | 83 | 1010.2 |
| 20260505163919 | 74 | 360 | 5.0 | 13.0 | 0.00 | 0.00 | 0.00 | 83 | 1010.1 |
| 20260505163820 | 74 | 360 | 5.0 | 13.0 | 0.00 | 0.00 | 0.00 | 83 | 1010.1 |
| 20260505163719 | 74 | 360 | 5.0 | 13.0 | 0.00 | 0.00 | 0.00 | 84 | 1010.1 |
| 20260505163620 | 74 | 360 | 5.0 | 13.0 | 0.00 | 0.00 | 0.00 | 84 | 1010.0 |
| 20260505163540 | 73 | 360 | 5.0 | 13.0 | 0.00 | 0.00 | 0.00 | 84 | 1010.1 |
| 20260505163420 | 73 | 360 | 5.0 | 13.0 | 0.00 | 0.00 | 0.00 | 84 | 1010.1 |
| 20260505163321 | 73 | 360 | 5.0 | 13.0 | 0.00 | 0.00 | 0.00 | 84 | 1010.1 |
| 20260505163226 | 73 | 360 | 5.0 | 13.0 | 0.00 | 0.00 | 0.00 | 84 | 1010.1 |
| 20260505163125 | 73 | 360 | 5.0 | 13.0 | 0.00 | 0.00 | 0.00 | 84 | 1010.1 |
| 20260505163027 | 73 | 360 | 5.0 | 13.0 | 0.00 | 0.00 | 0.00 | 84 | 1010.0 |
| 20260505162927 | 73 | 360 | 4.0 | 13.0 | 0.00 | 0.00 | 0.00 | 83 | 1010.0 |
| 20260505162828 | 73 | 360 | 4.0 | 13.0 | 0.00 | 0.00 | 0.00 | 83 | 1010.0 |
| 20260505162730 | 73 | 360 | 3.0 | 13.0 | 0.00 | 0.00 | 0.00 | 84 | 1010.0 |
| 20260505162650 | 73 | 360 | 2.0 | 11.0 | 0.00 | 0.00 | 0.00 | 84 | 1010.0 |
| 20260505162532 | 73 | 360 | 2.0 | 11.0 | 0.00 | 0.00 | 0.00 | 84 | 1010.1 |
| 20260505162432 | 73 | 360 | 2.0 | 11.0 | 0.00 | 0.00 | 0.00 | 83 | 1010.0 |
| 20260505162352 | 73 | 360 | 2.0 | 11.0 | 0.00 | 0.00 | 0.00 | 83 | 1010.1 |
| 20260505162232 | 73 | 360 | 2.0 | 11.0 | 0.00 | 0.00 | 0.00 | 83 | 1010.0 |
| 20260505162152 | 73 | 360 | 3.0 | 11.0 | 0.00 | 0.00 | 0.00 | 83 | 1010.1 |
| 20260505162032 | 73 | 360 | 3.0 | 12.0 | 0.00 | 0.00 | 0.00 | 84 | 1010.0 |
| 20260505161932 | 73 | 360 | 3.0 | 12.0 | 0.00 | 0.00 | 0.00 | 84 | 1010.1 |
| 20260505161817 | 73 | 360 | 4.0 | 12.0 | 0.00 | 0.00 | 0.00 | 84 | 1010.1 |
| 20260505161717 | 73 | 360 | 4.0 | 12.0 | 0.00 | 0.00 | 0.00 | 84 | 1010.1 |
| 20260505161617 | 73 | 360 | 5.0 | 12.0 | 0.00 | 0.00 | 0.00 | 85 | 1010.2 |
| 20260505161538 | 73 | 360 | 5.0 | 12.0 | 0.00 | 0.00 | 0.00 | 85 | 1010.2 |
| 20260505161416 | 73 | 360 | 5.0 | 12.0 | 0.00 | 0.00 | 0.00 | 85 | 1010.2 |
| 20260505161317 | 73 | 360 | 5.0 | 12.0 | 0.00 | 0.00 | 0.00 | 85 | 1010.2 |
| 20260505161217 | 73 | 360 | 5.0 | 12.0 | 0.00 | 0.00 | 0.00 | 84 | 1010.2 |
| 20260505161118 | 73 | 360 | 4.0 | 11.0 | 0.00 | 0.00 | 0.00 | 84 | 1010.2 |
| 20260505161023 | 73 | 360 | 4.0 | 9.0 | 0.00 | 0.00 | 0.00 | 85 | 1010.2 |
| 20260505160923 | 73 | 360 | 3.0 | 9.0 | 0.00 | 0.00 | 0.00 | 85 | 1010.1 |
| 20260505160823 | 73 | 360 | 3.0 | 9.0 | 0.00 | 0.00 | 0.00 | 85 | 1010.2 |
| 20260505160724 | 73 | 360 | 3.0 | 9.0 | 0.00 | 0.00 | 0.00 | 85 | 1010.1 |
| 20260505160624 | 73 | 360 | 3.0 | 9.0 | 0.00 | 0.00 | 0.00 | 85 | 1010.2 |
| 20260505160523 | 73 | 360 | 3.0 | 9.0 | 0.00 | 0.00 | 0.00 | 85 | 1010.2 |
| 20260505160444 | 73 | 360 | 3.0 | 9.0 | 0.00 | 0.00 | 0.00 | 85 | 1010.2 |
| 20260505160328 | 73 | 360 | 3.0 | 9.0 | 0.00 | 0.00 | 0.00 | 85 | 1010.2 |
| 20260505160228 | 73 | 360 | 3.0 | 9.0 | 0.00 | 0.00 | 0.00 | 85 | 1010.2 |
| 20260505160127 | 73 | 360 | 3.0 | 9.0 | 0.00 | 0.00 | 0.00 | 85 | 1010.1 |
| 20260505153339 | 72 | 360 | 3.0 | 9.0 | 0.00 | 0.00 | 0.00 | 87 | 1010.3 |
| 20260505153217 | 72 | 360 | 2.0 | 6.0 | 0.00 | 0.00 | 0.00 | 87 | 1010.3 |
| 20260505153118 | 72 | 360 | 2.0 | 6.0 | 0.00 | 0.00 | 0.00 | 87 | 1010.2 |
| 20260505153039 | 72 | 360 | 2.0 | 6.0 | 0.00 | 0.00 | 0.00 | 87 | 1010.3 |
| 20260505152919 | 72 | 360 | 2.0 | 6.0 | 0.00 | 0.00 | 0.00 | 87 | 1010.3 |
| 20260505152820 | 72 | 360 | 2.0 | 11.0 | 0.00 | 0.00 | 0.00 | 87 | 1010.2 |
| 20260505152724 | 72 | 360 | 2.0 | 11.0 | 0.00 | 0.00 | 0.00 | 87 | 1010.2 |
| 20260505152624 | 72 | 360 | 2.0 | 11.0 | 0.00 | 0.00 | 0.00 | 87 | 1010.2 |
| 20260505152525 | 72 | 360 | 2.0 | 11.0 | 0.00 | 0.00 | 0.00 | 87 | 1010.1 |
| 20260505152425 | 72 | 360 | 3.0 | 11.0 | 0.00 | 0.00 | 0.00 | 87 | 1010.2 |
| 20260505152325 | 72 | 360 | 4.0 | 11.0 | 0.00 | 0.00 | 0.00 | 87 | 1010.1 |
| 20260505152225 | 72 | 360 | 4.0 | 11.0 | 0.00 | 0.00 | 0.00 | 87 | 1010.1 |
| 20260505152125 | 72 | 360 | 5.0 | 11.0 | 0.00 | 0.00 | 0.00 | 87 | 1010.1 |
| 20260505152046 | 71 | 360 | 5.0 | 11.0 | 0.00 | 0.00 | 0.00 | 87 | 1010.1 |
| 20260505151929 | 71 | 360 | 4.0 | 11.0 | 0.00 | 0.00 | 0.00 | 87 | 1010.1 |
| 20260505151829 | 71 | 360 | 3.0 | 11.0 | 0.00 | 0.00 | 0.00 | 87 | 1010.2 |
| 20260505151730 | 71 | 360 | 4.0 | 11.0 | 0.00 | 0.00 | 0.00 | 87 | 1010.1 |
| 20260505151630 | 71 | 360 | 3.0 | 11.0 | 0.00 | 0.00 | 0.00 | 87 | 1010.2 |
| 20260505151551 | 71 | 360 | 4.0 | 11.0 | 0.00 | 0.00 | 0.00 | 87 | 1010.3 |
| 20260505151431 | 71 | 360 | 4.0 | 16.0 | 0.00 | 0.00 | 0.00 | 87 | 1010.3 |
| 20260505151331 | 71 | 360 | 4.0 | 16.0 | 0.00 | 0.00 | 0.00 | 87 | 1010.3 |
| 20260505151236 | 71 | 360 | 4.0 | 16.0 | 0.00 | 0.00 | 0.00 | 87 | 1010.3 |
| 20260505151135 | 71 | 360 | 4.0 | 16.0 | 0.00 | 0.00 | 0.00 | 88 | 1010.2 |
| 20260505151035 | 71 | 360 | 4.0 | 16.0 | 0.00 | 0.00 | 0.00 | 88 | 1010.1 |
| 20260505150935 | 71 | 360 | 4.0 | 16.0 | 0.00 | 0.00 | 0.00 | 88 | 1010.1 |
| 20260505150816 | 71 | 360 | 5.0 | 16.0 | 0.00 | 0.00 | 0.00 | 88 | 1010.0 |
| 20260505150716 | 71 | 360 | 4.0 | 16.0 | 0.00 | 0.00 | 0.00 | 88 | 1009.9 |
| 20260505150621 | 71 | 360 | 5.0 | 16.0 | 0.00 | 0.00 | 0.00 | 88 | 1010.0 |
| 20260505150522 | 71 | 360 | 3.0 | 15.0 | 0.00 | 0.00 | 0.00 | 88 | 1009.9 |
| 20260505150422 | 71 | 360 | 3.0 | 15.0 | 0.00 | 0.00 | 0.00 | 88 | 1009.9 |
| 20260505150342 | 71 | 360 | 4.0 | 15.0 | 0.00 | 0.00 | 0.00 | 88 | 1009.9 |
| 20260505150221 | 71 | 360 | 5.0 | 15.0 | 0.00 | 0.00 | 0.00 | 88 | 1009.9 |
| 20260505150122 | 71 | 360 | 5.0 | 15.0 | 0.00 | 0.00 | 0.00 | 88 | 1009.8 |
| 20260505140617 | 71 | 360 | 2.0 | 16.0 | 0.00 | 0.00 | 0.00 | 88 | 1009.7 |
| 20260505140519 | 71 | 360 | 2.0 | 16.0 | 0.00 | 0.00 | 0.00 | 88 | 1009.7 |
| 20260505140417 | 71 | 360 | 3.0 | 16.0 | 0.00 | 0.00 | 0.00 | 88 | 1009.7 |
| 20260505140318 | 71 | 360 | 4.0 | 16.0 | 0.00 | 0.00 | 0.00 | 88 | 1009.6 |
| 20260505140223 | 71 | 360 | 5.0 | 16.0 | 0.00 | 0.00 | 0.00 | 88 | 1009.6 |
| 20260505140123 | 71 | 360 | 5.0 | 16.0 | 0.00 | 0.00 | 0.00 | 88 | 1009.7 |
| 20260505130217 | 70 | 360 | 4.0 | 16.0 | 0.00 | 0.00 | 0.00 | 87 | 1009.1 |
| 20260505130118 | 70 | 360 | 4.0 | 16.0 | 0.00 | 0.00 | 0.00 | 87 | 1009.2 |
| 20260505125026 | 70 | 360 | 6.0 | 19.0 | 0.00 | 0.00 | 0.00 | 87 | 1008.9 |
| 20260505124927 | 70 | 360 | 7.0 | 19.0 | 0.00 | 0.00 | 0.00 | 88 | 1008.9 |
| 20260505124827 | 70 | 360 | 7.0 | 19.0 | 0.00 | 0.00 | 0.00 | 87 | 1008.9 |
| 20260505124747 | 70 | 360 | 7.0 | 19.0 | 0.00 | 0.00 | 0.00 | 88 | 1008.8 |
| 20260505124627 | 70 | 360 | 7.0 | 19.0 | 0.00 | 0.00 | 0.00 | 87 | 1008.9 |
| 20260505124548 | 70 | 360 | 7.0 | 19.0 | 0.00 | 0.00 | 0.00 | 87 | 1008.9 |
| 20260505124427 | 70 | 360 | 7.0 | 19.0 | 0.00 | 0.00 | 0.00 | 87 | 1008.7 |
| 20260505124329 | 70 | 360 | 6.0 | 19.0 | 0.00 | 0.00 | 0.00 | 88 | 1008.8 |
| 20260505124254 | 70 | 360 | 6.0 | 14.0 | 0.00 | 0.00 | 0.00 | 88 | 1008.8 |
| 20260505124134 | 70 | 360 | 5.0 | 14.0 | 0.00 | 0.00 | 0.00 | 88 | 1008.8 |
| 20260505124055 | 70 | 360 | 4.0 | 12.0 | 0.00 | 0.00 | 0.00 | 88 | 1008.8 |
| 20260505123934 | 70 | 360 | 4.0 | 12.0 | 0.00 | 0.00 | 0.00 | 88 | 1008.8 |
| 20260505123835 | 70 | 360 | 4.0 | 14.0 | 0.00 | 0.00 | 0.00 | 88 | 1008.7 |
| 20260505123735 | 70 | 360 | 3.0 | 14.0 | 0.00 | 0.00 | 0.00 | 88 | 1008.7 |
| 20260505123617 | 70 | 360 | 2.0 | 14.0 | 0.00 | 0.00 | 0.00 | 88 | 1008.7 |
| 20260505123542 | 70 | 360 | 2.0 | 14.0 | 0.00 | 0.00 | 0.00 | 88 | 1008.7 |
| 20260505123416 | 70 | 360 | 4.0 | 14.0 | 0.00 | 0.00 | 0.00 | 88 | 1008.7 |
| 20260505123316 | 70 | 360 | 4.0 | 14.0 | 0.00 | 0.00 | 0.00 | 88 | 1008.7 |
| 20260505123217 | 70 | 360 | 5.0 | 14.0 | 0.00 | 0.00 | 0.00 | 88 | 1008.6 |
| 20260505123137 | 70 | 360 | 5.0 | 14.0 | 0.00 | 0.00 | 0.00 | 88 | 1008.6 |
| 20260505123016 | 70 | 360 | 5.0 | 14.0 | 0.00 | 0.00 | 0.00 | 87 | 1008.6 |
| 20260505122917 | 70 | 360 | 5.0 | 14.0 | 0.00 | 0.00 | 0.00 | 87 | 1008.6 |
| 20260505122822 | 70 | 360 | 5.0 | 16.0 | 0.00 | 0.00 | 0.00 | 87 | 1008.6 |
| 20260505122721 | 70 | 360 | 5.0 | 16.0 | 0.00 | 0.00 | 0.00 | 87 | 1008.6 |
| 20260505122622 | 70 | 360 | 5.0 | 16.0 | 0.00 | 0.00 | 0.00 | 87 | 1008.6 |
| 20260505122523 | 70 | 360 | 6.0 | 16.0 | 0.00 | 0.00 | 0.00 | 87 | 1008.5 |
| 20260505122444 | 70 | 360 | 6.0 | 16.0 | 0.00 | 0.00 | 0.00 | 87 | 1008.6 |
| 20260505122323 | 70 | 360 | 5.0 | 16.0 | 0.00 | 0.00 | 0.00 | 87 | 1008.5 |
| 20260505122223 | 70 | 360 | 5.0 | 16.0 | 0.00 | 0.00 | 0.00 | 87 | 1008.5 |
| 20260505122148 | 70 | 360 | 6.0 | 16.0 | 0.00 | 0.00 | 0.00 | 87 | 1008.5 |
| 20260505122027 | 70 | 360 | 7.0 | 16.0 | 0.00 | 0.00 | 0.00 | 87 | 1008.5 |
| 20260505121948 | 70 | 360 | 7.0 | 16.0 | 0.00 | 0.00 | 0.00 | 87 | 1008.5 |
| 20260505121828 | 70 | 360 | 7.0 | 15.0 | 0.00 | 0.00 | 0.00 | 87 | 1008.4 |
| 20260505121748 | 70 | 360 | 6.0 | 15.0 | 0.00 | 0.00 | 0.00 | 87 | 1008.5 |
| 20260505121627 | 70 | 360 | 7.0 | 15.0 | 0.00 | 0.00 | 0.00 | 87 | 1008.4 |
| 20260505121528 | 70 | 360 | 6.0 | 15.0 | 0.00 | 0.00 | 0.00 | 87 | 1008.3 |
| 20260505121429 | 70 | 360 | 6.0 | 15.0 | 0.00 | 0.00 | 0.00 | 87 | 1008.3 |
| 20260505121333 | 70 | 360 | 6.0 | 15.0 | 0.00 | 0.00 | 0.00 | 87 | 1008.3 |
| 20260505121233 | 70 | 360 | 6.0 | 15.0 | 0.00 | 0.00 | 0.00 | 87 | 1008.2 |
| 20260505121155 | 70 | 360 | 6.0 | 15.0 | 0.00 | 0.00 | 0.00 | 87 | 1008.3 |
| 20260505121035 | 70 | 360 | 6.0 | 15.0 | 0.00 | 0.00 | 0.00 | 87 | 1008.3 |
| 20260505120936 | 70 | 360 | 6.0 | 15.0 | 0.00 | 0.00 | 0.00 | 87 | 1008.3 |
| 20260505120857 | 70 | 360 | 6.0 | 15.0 | 0.00 | 0.00 | 0.00 | 87 | 1008.3 |
| 20260505120755 | 70 | 360 | 5.0 | 15.0 | 0.00 | 0.00 | 0.00 | 87 | 1008.2 |
| 20260505120620 | 70 | 360 | 5.0 | 14.0 | 0.00 | 0.00 | 0.00 | 87 | 1008.4 |
| 20260505120521 | 70 | 360 | 5.0 | 14.0 | 0.00 | 0.00 | 0.00 | 87 | 1008.3 |
| 20260505120422 | 70 | 360 | 5.0 | 14.0 | 0.00 | 0.00 | 0.00 | 87 | 1008.3 |
| 20260505120321 | 70 | 360 | 4.0 | 14.0 | 0.00 | 0.00 | 0.00 | 87 | 1008.4 |
| 20260505120222 | 70 | 360 | 3.0 | 14.0 | 0.00 | 0.00 | 0.00 | 87 | 1008.4 |
| 20260505120142 | 70 | 360 | 4.0 | 14.0 | 0.00 | 0.00 | 0.00 | 87 | 1008.4 |
| 20260505120023 | 70 | 360 | 3.0 | 10.0 | 0.00 | 0.00 | 0.00 | 87 | 1008.4 |
| 20260505115926 | 70 | 360 | 3.0 | 10.0 | 0.00 | 0.00 | 0.00 | 87 | 1008.4 |
| 20260505115827 | 70 | 360 | 4.0 | 10.0 | 0.00 | 0.00 | 0.00 | 87 | 1008.3 |
| 20260505115729 | 70 | 360 | 5.0 | 10.0 | 0.00 | 0.00 | 0.00 | 87 | 1008.3 |
| 20260505115629 | 70 | 360 | 4.0 | 10.0 | 0.00 | 0.00 | 0.00 | 87 | 1008.3 |
| 20260505115529 | 70 | 360 | 4.0 | 10.0 | 0.00 | 0.00 | 0.00 | 87 | 1008.3 |
| 20260505115429 | 70 | 360 | 4.0 | 12.0 | 0.00 | 0.00 | 0.00 | 87 | 1008.2 |
| 20260505115330 | 70 | 360 | 4.0 | 13.0 | 0.00 | 0.00 | 0.00 | 87 | 1008.3 |
| 20260505115234 | 70 | 360 | 4.0 | 13.0 | 0.00 | 0.00 | 0.00 | 87 | 1008.3 |
| 20260505115135 | 70 | 360 | 5.0 | 13.0 | 0.00 | 0.00 | 0.00 | 87 | 1008.3 |
| 20260505115016 | 70 | 360 | 5.0 | 13.0 | 0.00 | 0.00 | 0.00 | 87 | 1008.3 |
| 20260505114937 | 70 | 360 | 5.0 | 13.0 | 0.00 | 0.00 | 0.00 | 87 | 1008.3 |
| 20260505114836 | 70 | 360 | 6.0 | 13.0 | 0.00 | 0.00 | 0.00 | 87 | 1008.3 |
| 20260505114716 | 70 | 360 | 5.0 | 13.0 | 0.00 | 0.00 | 0.00 | 87 | 1008.3 |
| 20260505114617 | 70 | 360 | 5.0 | 13.0 | 0.00 | 0.00 | 0.00 | 87 | 1008.3 |
| 20260505114522 | 70 | 360 | 5.0 | 13.0 | 0.00 | 0.00 | 0.00 | 87 | 1008.4 |
| 20260505114443 | 70 | 360 | 5.0 | 13.0 | 0.00 | 0.00 | 0.00 | 87 | 1008.3 |
| 20260505114322 | 70 | 360 | 5.0 | 13.0 | 0.00 | 0.00 | 0.00 | 87 | 1008.3 |
| 20260505114242 | 70 | 360 | 5.0 | 13.0 | 0.00 | 0.00 | 0.00 | 87 | 1008.3 |
| 20260505114142 | 70 | 360 | 5.0 | 13.0 | 0.00 | 0.00 | 0.00 | 87 | 1008.2 |
| 20260505114043 | 70 | 360 | 5.0 | 12.0 | 0.00 | 0.00 | 0.00 | 87 | 1008.2 |
| 20260505113921 | 70 | 360 | 5.0 | 12.0 | 0.00 | 0.00 | 0.00 | 87 | 1008.2 |
| 20260505113822 | 70 | 360 | 5.0 | 12.0 | 0.00 | 0.00 | 0.00 | 87 | 1008.2 |
| 20260505113727 | 70 | 360 | 5.0 | 12.0 | 0.00 | 0.00 | 0.00 | 87 | 1008.2 |
| 20260505113627 | 70 | 360 | 5.0 | 12.0 | 0.00 | 0.00 | 0.00 | 87 | 1008.1 |
| 20260505113548 | 70 | 360 | 5.0 | 12.0 | 0.00 | 0.00 | 0.00 | 87 | 1008.1 |
| 20260505113428 | 70 | 360 | 4.0 | 10.0 | 0.00 | 0.00 | 0.00 | 87 | 1008.1 |
| 20260505113348 | 70 | 360 | 4.0 | 10.0 | 0.00 | 0.00 | 0.00 | 87 | 1008.0 |
| 20260505113228 | 70 | 360 | 4.0 | 10.0 | 0.00 | 0.00 | 0.00 | 87 | 1008.1 |
| 20260505113129 | 70 | 360 | 4.0 | 10.0 | 0.00 | 0.00 | 0.00 | 87 | 1008.1 |
| 20260505113051 | 70 | 360 | 4.0 | 13.0 | 0.00 | 0.00 | 0.00 | 87 | 1008.0 |
| 20260505112934 | 70 | 360 | 4.0 | 13.0 | 0.00 | 0.00 | 0.00 | 87 | 1007.9 |
| 20260505112834 | 70 | 360 | 4.0 | 13.0 | 0.00 | 0.00 | 0.00 | 87 | 1007.9 |
| 20260505112735 | 70 | 360 | 4.0 | 13.0 | 0.00 | 0.00 | 0.00 | 87 | 1008.0 |
| 20260505112654 | 70 | 360 | 4.0 | 13.0 | 0.00 | 0.00 | 0.00 | 87 | 1008.0 |
| 20260505112533 | 70 | 360 | 4.0 | 13.0 | 0.00 | 0.00 | 0.00 | 87 | 1008.1 |
| 20260505112434 | 70 | 360 | 4.0 | 13.0 | 0.00 | 0.00 | 0.00 | 87 | 1008.2 |
| 20260505112334 | 70 | 360 | 4.0 | 15.0 | 0.00 | 0.00 | 0.00 | 87 | 1008.2 |
| 20260505112235 | 70 | 360 | 3.0 | 15.0 | 0.00 | 0.00 | 0.00 | 87 | 1008.2 |
| 20260505112119 | 70 | 360 | 4.0 | 15.0 | 0.00 | 0.00 | 0.00 | 87 | 1008.3 |
| 20260505112019 | 70 | 360 | 3.0 | 15.0 | 0.00 | 0.00 | 0.00 | 87 | 1008.3 |
| 20260505111919 | 70 | 360 | 3.0 | 15.0 | 0.00 | 0.00 | 0.00 | 87 | 1008.2 |
| 20260505111820 | 70 | 360 | 4.0 | 15.0 | 0.00 | 0.00 | 0.00 | 87 | 1008.1 |
| 20260505111721 | 70 | 360 | 5.0 | 15.0 | 0.00 | 0.00 | 0.00 | 87 | 1008.1 |
| 20260505111621 | 70 | 360 | 5.0 | 14.0 | 0.00 | 0.00 | 0.00 | 87 | 1008.1 |
| 20260505111522 | 70 | 360 | 4.0 | 14.0 | 0.00 | 0.00 | 0.00 | 87 | 1008.1 |
| 20260505111426 | 70 | 360 | 4.0 | 14.0 | 0.00 | 0.00 | 0.00 | 87 | 1008.1 |
| 20260505111327 | 70 | 360 | 4.0 | 14.0 | 0.00 | 0.00 | 0.00 | 87 | 1008.2 |
| 20260505111228 | 70 | 360 | 4.0 | 14.0 | 0.00 | 0.00 | 0.00 | 87 | 1008.1 |
| 20260505111128 | 70 | 360 | 4.0 | 14.0 | 0.00 | 0.00 | 0.00 | 87 | 1008.1 |
| 20260505111029 | 70 | 360 | 5.0 | 14.0 | 0.00 | 0.00 | 0.00 | 87 | 1008.2 |
| 20260505110930 | 70 | 360 | 5.0 | 14.0 | 0.00 | 0.00 | 0.00 | 87 | 1008.2 |
| 20260505110830 | 70 | 360 | 6.0 | 14.0 | 0.00 | 0.00 | 0.00 | 87 | 1008.3 |
| 20260505110735 | 70 | 360 | 7.0 | 14.0 | 0.00 | 0.00 | 0.00 | 87 | 1008.3 |
| 20260505110636 | 70 | 360 | 6.0 | 14.0 | 0.00 | 0.00 | 0.00 | 87 | 1008.3 |
| 20260505110535 | 70 | 360 | 7.0 | 14.0 | 0.00 | 0.00 | 0.00 | 87 | 1008.3 |
| 20260505110416 | 70 | 360 | 7.0 | 14.0 | 0.00 | 0.00 | 0.00 | 87 | 1008.4 |
| 20260505110317 | 70 | 360 | 7.0 | 14.0 | 0.00 | 0.00 | 0.00 | 87 | 1008.4 |
| 20260505110217 | 70 | 360 | 6.0 | 14.0 | 0.00 | 0.00 | 0.00 | 87 | 1008.4 |
| 20260505110122 | 70 | 360 | 6.0 | 12.0 | 0.00 | 0.00 | 0.00 | 87 | 1008.5 |